Time,TemperatureF,DewpointF,PressureIn,WindDirection,WindDirectionDegrees,WindSpeedMPH,WindSpeedGustMPH,Humidity,HourlyPrecipIn,Conditions,Clouds,dailyrainin,SoftwareType,DateUTC
2013-07-03 00:00:00,68.9,67.7,30.16,SSE,147,0.0,5.0,96,0.00,,,0.17,VWS V14.01,2013-07-03 04:00:00,
2013-07-03 00:01:00,68.9,67.7,30.16,SE,145,0.0,5.0,96,0.00,,,0.17,VWS V14.01,2013-07-03 04:01:00,
2013-07-03 00:02:00,68.9,67.7,30.16,SE,145,0.0,5.0,96,0.00,,,0.17,VWS V14.01,2013-07-03 04:02:00,
2013-07-03 00:03:00,68.9,67.7,30.16,SE,146,0.0,5.0,96,0.00,,,0.17,VWS V14.01,2013-07-03 04:03:00,
2013-07-03 00:04:00,68.9,67.7,30.16,SE,146,0.0,5.0,96,0.00,,,0.17,VWS V14.01,2013-07-03 04:04:00,
2013-07-03 00:05:00,68.8,67.6,30.16,SSE,147,0.0,5.0,96,0.00,,,0.00,VWS V14.01,2013-07-03 04:05:00,
2013-07-03 00:09:00,68.8,67.6,30.16,SE,146,0.0,0.0,96,0.00,,,0.00,VWS V14.01,2013-07-03 04:09:00,
2013-07-03 00:11:00,68.8,67.6,30.16,SSE,147,0.0,0.0,96,0.00,,,0.00,VWS V14.01,2013-07-03 04:11:00,
2013-07-03 00:14:00,68.8,67.6,30.16,SSE,147,0.0,0.0,96,0.00,,,0.00,VWS V14.01,2013-07-03 04:14:00,
2013-07-03 00:15:00,68.6,67.4,30.16,SE,145,0.0,0.0,96,0.00,,,0.00,VWS V14.01,2013-07-03 04:15:00,
2013-07-03 00:19:00,68.6,67.4,30.16,SE,145,0.0,0.0,96,0.00,,,0.00,VWS V14.01,2013-07-03 04:19:00,
2013-07-03 00:20:00,68.4,67.2,30.16,SE,145,0.0,0.0,96,0.00,,,0.00,VWS V14.01,2013-07-03 04:20:00,
2013-07-03 00:21:00,68.4,67.2,30.16,SE,146,0.0,0.0,96,0.00,,,0.00,VWS V14.01,2013-07-03 04:21:00,
2013-07-03 00:23:00,68.4,67.2,30.16,SE,145,0.0,0.0,96,0.00,,,0.00,VWS V14.01,2013-07-03 04:23:00,
2013-07-03 00:25:00,68.4,67.2,30.16,SSE,147,0.0,0.0,96,0.00,,,0.00,VWS V14.01,2013-07-03 04:25:00,
2013-07-03 00:27:00,68.3,67.1,30.16,SE,145,0.0,0.0,96,0.00,,,0.00,VWS V14.01,2013-07-03 04:27:00,
2013-07-03 00:28:00,68.3,67.1,30.16,SSE,147,0.0,0.0,96,0.00,,,0.00,VWS V14.01,2013-07-03 04:28:00,
2013-07-03 00:29:00,68.3,67.1,30.16,SSE,147,0.0,0.0,96,0.00,,,0.00,VWS V14.01,2013-07-03 04:29:00,
2013-07-03 00:30:00,68.3,67.1,30.16,SSE,147,0.0,0.0,96,0.00,,,0.00,VWS V14.01,2013-07-03 04:30:00,
2013-07-03 00:31:00,68.3,67.1,30.16,SE,144,0.0,0.0,96,0.00,,,0.00,VWS V14.01,2013-07-03 04:31:00,
2013-07-03 00:32:00,68.3,67.1,30.16,SE,146,4.0,4.0,96,0.00,,,0.00,VWS V14.01,2013-07-03 04:32:00,
2013-07-03 00:34:00,68.3,67.1,30.16,SE,145,0.0,4.0,96,0.00,,,0.00,VWS V14.01,2013-07-03 04:34:00,
2013-07-03 00:35:00,68.3,67.1,30.16,SSE,147,0.0,4.0,96,0.00,,,0.00,VWS V14.01,2013-07-03 04:35:00,
2013-07-03 00:37:00,68.4,67.5,30.16,SSE,147,0.0,0.0,97,0.00,,,0.00,VWS V14.01,2013-07-03 04:37:00,
2013-07-03 00:38:00,68.4,67.5,30.16,SSE,153,2.0,2.0,97,0.00,,,0.00,VWS V14.01,2013-07-03 04:38:00,
2013-07-03 00:40:00,68.6,67.7,30.16,SSE,150,1.0,6.0,97,0.00,,,0.00,VWS V14.01,2013-07-03 04:40:00,
2013-07-03 00:44:00,68.9,68.0,30.16,SSE,152,0.0,6.0,97,0.00,,,0.00,VWS V14.01,2013-07-03 04:44:00,
2013-07-03 00:45:00,68.8,67.6,30.16,SSE,152,0.0,6.0,96,0.00,,,0.00,VWS V14.01,2013-07-03 04:45:00,
2013-07-03 00:46:00,68.6,67.4,30.16,SSE,153,0.0,6.0,96,0.00,,,0.00,VWS V14.01,2013-07-03 04:46:00,
2013-07-03 00:47:00,68.4,67.2,30.16,SSE,153,0.0,6.0,96,0.00,,,0.00,VWS V14.01,2013-07-03 04:47:00,
2013-07-03 00:49:00,68.3,67.1,30.17,SSE,150,0.0,6.0,96,0.00,,,0.00,VWS V14.01,2013-07-03 04:49:00,
2013-07-03 00:50:00,68.1,66.9,30.17,SSE,153,0.0,6.0,96,0.00,,,0.00,VWS V14.01,2013-07-03 04:50:00,
2013-07-03 00:53:00,67.9,66.7,30.17,SSE,150,0.0,6.0,96,0.00,,,0.00,VWS V14.01,2013-07-03 04:53:00,
2013-07-03 00:54:00,67.9,66.7,30.17,SSE,151,0.0,6.0,96,0.00,,,0.00,VWS V14.01,2013-07-03 04:54:00,
2013-07-03 00:56:00,67.8,66.6,30.17,SSE,151,0.0,6.0,96,0.00,,,0.00,VWS V14.01,2013-07-03 04:56:00,
2013-07-03 00:57:00,67.8,66.6,30.17,SSE,150,0.0,6.0,96,0.00,,,0.00,VWS V14.01,2013-07-03 04:57:00,
2013-07-03 00:58:00,67.8,66.6,30.17,SSE,152,0.0,6.0,96,0.00,,,0.00,VWS V14.01,2013-07-03 04:58:00,
2013-07-03 01:01:00,67.6,66.4,30.17,SSE,152,0.0,6.0,96,0.00,,,0.00,VWS V14.01,2013-07-03 05:01:00,
2013-07-03 01:02:00,67.6,66.4,30.17,SSE,150,0.0,6.0,96,0.00,,,0.00,VWS V14.01,2013-07-03 05:02:00,
2013-07-03 01:04:00,67.4,66.2,30.17,SSE,150,0.0,6.0,96,0.00,,,0.00,VWS V14.01,2013-07-03 05:04:00,
2013-07-03 01:07:00,67.3,66.1,30.17,SSE,150,0.0,5.0,96,0.00,,,0.00,VWS V14.01,2013-07-03 05:07:00,
2013-07-03 01:08:00,67.3,66.1,30.17,SSE,151,0.0,5.0,96,0.00,,,0.00,VWS V14.01,2013-07-03 05:08:00,
2013-07-03 01:10:00,67.3,66.1,30.17,SSE,153,4.0,5.0,96,0.00,,,0.00,VWS V14.01,2013-07-03 05:10:00,
2013-07-03 01:11:00,67.3,66.1,30.17,SSE,151,0.0,5.0,96,0.00,,,0.00,VWS V14.01,2013-07-03 05:11:00,
2013-07-03 01:13:00,67.3,66.1,30.17,SSE,153,0.0,5.0,96,0.00,,,0.00,VWS V14.01,2013-07-03 05:13:00,
2013-07-03 01:14:00,67.3,66.4,30.17,SSE,150,0.0,5.0,97,0.00,,,0.00,VWS V14.01,2013-07-03 05:14:00,
2013-07-03 01:15:00,67.3,66.4,30.17,SSE,150,0.0,5.0,97,0.00,,,0.00,VWS V14.01,2013-07-03 05:15:00,
2013-07-03 01:19:00,67.6,66.7,30.17,SSE,153,4.0,5.0,97,0.00,,,0.00,VWS V14.01,2013-07-03 05:19:00,
2013-07-03 01:21:00,67.6,66.7,30.17,SSE,152,0.0,5.0,97,0.00,,,0.00,VWS V14.01,2013-07-03 05:21:00,
2013-07-03 01:22:00,67.8,66.9,30.17,SSE,150,0.0,5.0,97,0.00,,,0.00,VWS V14.01,2013-07-03 05:22:00,
2013-07-03 01:23:00,67.8,66.9,30.17,SSE,153,0.0,5.0,97,0.00,,,0.00,VWS V14.01,2013-07-03 05:23:00,
2013-07-03 01:26:00,67.8,66.9,30.17,SSE,153,0.0,5.0,97,0.00,,,0.00,VWS V14.01,2013-07-03 05:26:00,
2013-07-03 01:27:00,67.9,67.0,30.17,SSE,152,0.0,5.0,97,0.00,,,0.00,VWS V14.01,2013-07-03 05:27:00,
2013-07-03 01:28:00,67.9,67.0,30.17,SSE,151,0.0,5.0,97,0.00,,,0.00,VWS V14.01,2013-07-03 05:28:00,
2013-07-03 01:31:00,68.1,67.2,30.17,SSW,194,4.0,5.0,97,0.00,,,0.00,VWS V14.01,2013-07-03 05:31:00,
2013-07-03 01:32:00,68.1,67.2,30.17,SSW,195,0.0,5.0,97,0.00,,,0.00,VWS V14.01,2013-07-03 05:32:00,
2013-07-03 01:34:00,68.3,67.4,30.16,SSW,196,0.0,5.0,97,0.00,,,0.00,VWS V14.01,2013-07-03 05:34:00,
2013-07-03 01:36:00,68.3,67.4,30.16,SSW,195,0.0,3.0,97,0.00,,,0.00,VWS V14.01,2013-07-03 05:36:00,
2013-07-03 01:37:00,68.4,67.5,30.16,SSW,196,0.0,3.0,97,0.00,,,0.00,VWS V14.01,2013-07-03 05:37:00,
2013-07-03 01:42:00,68.4,67.5,30.16,SSW,192,0.0,3.0,97,0.00,,,0.00,VWS V14.01,2013-07-03 05:42:00,
2013-07-03 01:43:00,68.6,67.7,30.16,SSW,192,0.0,3.0,97,0.00,,,0.00,VWS V14.01,2013-07-03 05:43:00,
2013-07-03 01:45:00,68.6,67.7,30.16,SSW,193,0.0,3.0,97,0.00,,,0.00,VWS V14.01,2013-07-03 05:45:00,
2013-07-03 01:47:00,68.6,67.7,30.16,South,191,0.0,3.0,97,0.00,,,0.00,VWS V14.01,2013-07-03 05:47:00,
2013-07-03 01:48:00,68.6,67.7,30.16,South,191,0.0,3.0,97,0.00,,,0.00,VWS V14.01,2013-07-03 05:48:00,
2013-07-03 01:51:00,68.6,67.7,30.16,South,190,0.0,3.0,97,0.00,,,0.00,VWS V14.01,2013-07-03 05:51:00,
2013-07-03 01:53:00,68.6,67.7,30.16,South,190,0.0,3.0,97,0.00,,,0.00,VWS V14.01,2013-07-03 05:53:00,
2013-07-03 01:54:00,68.6,67.7,30.16,South,189,0.0,3.0,97,0.00,,,0.00,VWS V14.01,2013-07-03 05:54:00,
2013-07-03 02:00:00,68.3,67.1,30.16,South,190,3.0,9.0,96,0.00,,,0.00,VWS V14.01,2013-07-03 06:00:00,
2013-07-03 02:02:00,68.1,67.2,30.16,South,189,0.0,9.0,97,0.00,,,0.00,VWS V14.01,2013-07-03 06:02:00,
2013-07-03 02:03:00,68.1,67.2,30.16,South,189,0.0,9.0,97,0.00,,,0.00,VWS V14.01,2013-07-03 06:03:00,
2013-07-03 02:07:00,67.9,67.0,30.16,South,190,0.0,0.0,97,0.00,,,0.00,VWS V14.01,2013-07-03 06:07:00,
2013-07-03 02:10:00,67.9,67.0,30.16,SSE,148,2.0,7.0,97,0.00,,,0.00,VWS V14.01,2013-07-03 06:10:00,
2013-07-03 02:12:00,67.8,66.9,30.16,SSE,149,0.0,7.0,97,0.00,,,0.00,VWS V14.01,2013-07-03 06:12:00,
2013-07-03 02:15:00,67.6,66.4,30.16,SSE,147,2.0,7.0,96,0.00,,,0.00,VWS V14.01,2013-07-03 06:15:00,
2013-07-03 02:16:00,67.6,66.4,30.16,SSE,148,2.0,7.0,96,0.00,,,0.00,VWS V14.01,2013-07-03 06:16:00,
2013-07-03 02:17:00,67.4,66.2,30.16,SSE,148,5.0,7.0,96,0.00,,,0.00,VWS V14.01,2013-07-03 06:17:00,
2013-07-03 02:24:00,67.1,66.2,30.17,SSE,148,0.0,7.0,97,0.00,,,0.00,VWS V14.01,2013-07-03 06:24:00,
2013-07-03 02:27:00,67.1,66.2,30.17,SSE,149,0.0,7.0,97,0.00,,,0.00,VWS V14.01,2013-07-03 06:27:00,
2013-07-03 02:28:00,67.1,66.2,30.17,SSE,147,0.0,7.0,97,0.00,,,0.00,VWS V14.01,2013-07-03 06:28:00,
2013-07-03 02:30:00,67.1,66.2,30.17,SSE,148,0.0,7.0,97,0.00,,,0.00,VWS V14.01,2013-07-03 06:30:00,
2013-07-03 02:32:00,66.9,66.0,30.17,SSE,148,0.0,7.0,97,0.00,,,0.00,VWS V14.01,2013-07-03 06:32:00,
2013-07-03 02:33:00,66.9,66.0,30.17,SSE,149,0.0,7.0,97,0.00,,,0.00,VWS V14.01,2013-07-03 06:33:00,
2013-07-03 02:36:00,66.8,65.9,30.17,SSE,149,0.0,0.0,97,0.00,,,0.00,VWS V14.01,2013-07-03 06:36:00,
2013-07-03 02:37:00,66.8,65.9,30.17,SSE,147,0.0,0.0,97,0.00,,,0.00,VWS V14.01,2013-07-03 06:37:00,
2013-07-03 02:40:00,66.6,65.7,30.17,SSE,149,0.0,4.0,97,0.00,,,0.00,VWS V14.01,2013-07-03 06:40:00,
2013-07-03 02:42:00,66.6,65.7,30.17,SSE,148,0.0,4.0,97,0.00,,,0.00,VWS V14.01,2013-07-03 06:42:00,
2013-07-03 02:43:00,66.6,65.7,30.17,SSE,149,0.0,4.0,97,0.00,,,0.00,VWS V14.01,2013-07-03 06:43:00,
2013-07-03 02:49:00,66.6,65.7,30.16,SSE,148,0.0,5.0,97,0.00,,,0.00,VWS V14.01,2013-07-03 06:49:00,
2013-07-03 02:50:00,66.6,65.7,30.16,SSE,148,0.0,5.0,97,0.00,,,0.00,VWS V14.01,2013-07-03 06:50:00,
2013-07-03 02:53:00,66.4,65.5,30.16,SSE,149,0.0,5.0,97,0.00,,,0.00,VWS V14.01,2013-07-03 06:53:00,
2013-07-03 02:56:00,66.4,65.5,30.16,SSE,149,0.0,5.0,97,0.00,,,0.00,VWS V14.01,2013-07-03 06:56:00,
2013-07-03 02:57:00,66.6,65.7,30.16,SSE,148,0.0,5.0,97,0.00,,,0.00,VWS V14.01,2013-07-03 06:57:00,
2013-07-03 03:01:00,66.6,65.7,30.16,SSE,149,0.0,5.0,97,0.00,,,0.00,VWS V14.01,2013-07-03 07:01:00,
2013-07-03 03:02:00,66.6,65.7,30.16,SSE,149,0.0,5.0,97,0.00,,,0.00,VWS V14.01,2013-07-03 07:02:00,
2013-07-03 03:03:00,66.6,65.7,30.16,SSE,148,0.0,5.0,97,0.00,,,0.00,VWS V14.01,2013-07-03 07:03:00,
2013-07-03 03:07:00,66.6,65.7,30.16,SSE,148,0.0,0.0,97,0.00,,,0.00,VWS V14.01,2013-07-03 07:07:00,
2013-07-03 03:09:00,66.4,65.5,30.16,SSE,149,0.0,0.0,97,0.00,,,0.00,VWS V14.01,2013-07-03 07:09:00,
2013-07-03 03:10:00,66.4,65.5,30.16,SSE,148,0.0,0.0,97,0.00,,,0.00,VWS V14.01,2013-07-03 07:10:00,
2013-07-03 03:13:00,66.6,65.7,30.16,SSE,148,0.0,0.0,97,0.00,,,0.00,VWS V14.01,2013-07-03 07:13:00,
2013-07-03 03:16:00,66.4,65.5,30.16,SSE,147,0.0,0.0,97,0.00,,,0.00,VWS V14.01,2013-07-03 07:16:00,
2013-07-03 03:17:00,66.4,65.5,30.16,SSE,148,0.0,0.0,97,0.00,,,0.00,VWS V14.01,2013-07-03 07:17:00,
2013-07-03 03:18:00,66.4,65.5,30.16,SSE,147,0.0,0.0,97,0.00,,,0.00,VWS V14.01,2013-07-03 07:18:00,
2013-07-03 03:19:00,66.4,65.5,30.16,SSE,149,0.0,0.0,97,0.00,,,0.00,VWS V14.01,2013-07-03 07:19:00,
2013-07-03 03:21:00,66.4,65.5,30.16,SSE,149,0.0,0.0,97,0.00,,,0.00,VWS V14.01,2013-07-03 07:21:00,
2013-07-03 03:23:00,66.4,65.5,30.16,SSE,148,0.0,0.0,97,0.00,,,0.00,VWS V14.01,2013-07-03 07:23:00,
2013-07-03 03:24:00,66.4,65.5,30.16,SSE,149,0.0,0.0,97,0.00,,,0.00,VWS V14.01,2013-07-03 07:24:00,
2013-07-03 03:25:00,66.4,65.5,30.16,SSE,148,0.0,0.0,97,0.00,,,0.00,VWS V14.01,2013-07-03 07:25:00,
2013-07-03 03:28:00,66.6,65.7,30.16,SSE,148,0.0,0.0,97,0.00,,,0.00,VWS V14.01,2013-07-03 07:28:00,
2013-07-03 03:30:00,66.6,65.7,30.16,SW,221,4.0,8.0,97,0.00,,,0.00,VWS V14.01,2013-07-03 07:30:00,
2013-07-03 03:32:00,66.8,66.2,30.16,SW,223,0.0,8.0,98,0.00,,,0.00,VWS V14.01,2013-07-03 07:32:00,
2013-07-03 03:33:00,66.8,66.2,30.16,SW,221,0.0,8.0,98,0.00,,,0.00,VWS V14.01,2013-07-03 07:33:00,
2013-07-03 03:38:00,67.3,66.7,30.16,SW,223,0.0,4.0,98,0.00,,,0.00,VWS V14.01,2013-07-03 07:38:00,
2013-07-03 03:40:00,67.6,67.0,30.16,SW,215,2.0,5.0,98,0.00,,,0.00,VWS V14.01,2013-07-03 07:40:00,
2013-07-03 03:43:00,68.1,67.5,30.16,SW,215,0.0,5.0,98,0.00,,,0.00,VWS V14.01,2013-07-03 07:43:00,
2013-07-03 03:47:00,68.1,67.2,30.16,SW,215,0.0,5.0,97,0.00,,,0.00,VWS V14.01,2013-07-03 07:47:00,
2013-07-03 03:49:00,67.9,67.0,30.16,SW,215,0.0,5.0,97,0.00,,,0.00,VWS V14.01,2013-07-03 07:49:00,
2013-07-03 03:51:00,67.8,66.9,30.16,SW,215,0.0,5.0,97,0.00,,,0.00,VWS V14.01,2013-07-03 07:51:00,
2013-07-03 03:52:00,67.6,66.7,30.16,SW,215,0.0,5.0,97,0.00,,,0.00,VWS V14.01,2013-07-03 07:52:00,
2013-07-03 03:54:00,67.4,66.5,30.16,SW,215,0.0,5.0,97,0.00,,,0.00,VWS V14.01,2013-07-03 07:54:00,
2013-07-03 03:55:00,67.3,66.4,30.16,SW,216,0.0,5.0,97,0.00,,,0.00,VWS V14.01,2013-07-03 07:55:00,
2013-07-03 03:57:00,67.3,66.4,30.16,SW,215,0.0,5.0,97,0.00,,,0.00,VWS V14.01,2013-07-03 07:57:00,
2013-07-03 04:02:00,67.1,66.2,30.16,SW,217,3.0,5.0,97,0.00,,,0.00,VWS V14.01,2013-07-03 08:02:00,
2013-07-03 04:04:00,66.9,66.0,30.16,SW,219,0.0,6.0,97,0.00,,,0.00,VWS V14.01,2013-07-03 08:04:00,
2013-07-03 04:05:00,66.9,66.0,30.16,SW,219,0.0,6.0,97,0.00,,,0.00,VWS V14.01,2013-07-03 08:05:00,
2013-07-03 04:06:00,66.9,66.0,30.16,SW,221,0.0,0.0,97,0.00,,,0.00,VWS V14.01,2013-07-03 08:06:00,
2013-07-03 04:09:00,66.8,65.9,30.16,SW,221,0.0,0.0,97,0.00,,,0.00,VWS V14.01,2013-07-03 08:09:00,
2013-07-03 04:11:00,66.8,65.9,30.16,SW,221,0.0,2.0,97,0.00,,,0.00,VWS V14.01,2013-07-03 08:11:00,
2013-07-03 04:12:00,66.8,65.9,30.16,SW,219,0.0,2.0,97,0.00,,,0.00,VWS V14.01,2013-07-03 08:12:00,
2013-07-03 04:15:00,66.8,65.9,30.16,SW,220,0.0,2.0,97,0.00,,,0.00,VWS V14.01,2013-07-03 08:15:00,
2013-07-03 04:16:00,66.8,65.9,30.16,SW,220,0.0,2.0,97,0.00,,,0.00,VWS V14.01,2013-07-03 08:16:00,
2013-07-03 04:18:00,66.8,65.9,30.16,SW,221,0.0,2.0,97,0.00,,,0.00,VWS V14.01,2013-07-03 08:18:00,
2013-07-03 04:19:00,66.9,66.0,30.16,SW,221,1.0,3.0,97,0.00,,,0.00,VWS V14.01,2013-07-03 08:19:00,
2013-07-03 04:20:00,66.9,66.0,30.16,SW,220,4.0,4.0,97,0.00,,,0.00,VWS V14.01,2013-07-03 08:20:00,
2013-07-03 04:24:00,67.1,66.5,30.16,SW,219,4.0,4.0,98,0.00,,,0.00,VWS V14.01,2013-07-03 08:24:00,
2013-07-03 04:26:00,67.3,66.7,30.16,SW,220,0.0,5.0,98,0.00,,,0.00,VWS V14.01,2013-07-03 08:26:00,
2013-07-03 04:27:00,67.4,66.8,30.16,SW,219,4.0,5.0,98,0.00,,,0.00,VWS V14.01,2013-07-03 08:27:00,
2013-07-03 04:30:00,67.9,67.3,30.16,SW,219,6.0,6.0,98,0.00,,,0.00,VWS V14.01,2013-07-03 08:30:00,
2013-07-03 04:33:00,68.4,67.8,30.16,SW,219,2.0,6.0,98,0.00,,,0.00,VWS V14.01,2013-07-03 08:33:00,
2013-07-03 04:35:00,68.8,68.2,30.17,SW,221,2.0,3.0,98,0.00,,,0.00,VWS V14.01,2013-07-03 08:35:00,
2013-07-03 04:37:00,68.9,68.3,30.17,SW,221,3.0,6.0,98,0.00,,,0.00,VWS V14.01,2013-07-03 08:37:00,
2013-07-03 04:41:00,69.3,68.7,30.17,SW,220,0.0,6.0,98,0.00,,,0.00,VWS V14.01,2013-07-03 08:41:00,
2013-07-03 04:44:00,69.4,68.8,30.17,SW,219,0.0,6.0,98,0.00,,,0.00,VWS V14.01,2013-07-03 08:44:00,
2013-07-03 04:45:00,69.4,68.8,30.17,SW,219,0.0,6.0,98,0.00,,,0.00,VWS V14.01,2013-07-03 08:45:00,
2013-07-03 04:46:00,69.4,68.8,30.17,SW,220,0.0,6.0,98,0.00,,,0.00,VWS V14.01,2013-07-03 08:46:00,
2013-07-03 04:51:00,69.6,69.0,30.17,SW,219,0.0,6.0,98,0.00,,,0.00,VWS V14.01,2013-07-03 08:51:00,
2013-07-03 04:55:00,69.6,69.0,30.17,SW,219,0.0,6.0,98,0.00,,,0.00,VWS V14.01,2013-07-03 08:55:00,
2013-07-03 04:59:00,69.6,69.0,30.17,SW,221,0.0,6.0,98,0.00,,,0.00,VWS V14.01,2013-07-03 08:59:00,
2013-07-03 05:04:00,69.6,69.0,30.17,SW,221,0.0,6.0,98,0.00,,,0.00,VWS V14.01,2013-07-03 09:04:00,
2013-07-03 05:05:00,69.6,69.0,30.17,SW,220,0.0,0.0,98,0.00,,,0.00,VWS V14.01,2013-07-03 09:05:00,
2013-07-03 05:06:00,69.4,68.5,30.17,SW,220,0.0,0.0,97,0.00,,,0.00,VWS V14.01,2013-07-03 09:06:00,
2013-07-03 05:09:00,69.3,68.4,30.17,SW,221,0.0,0.0,97,0.00,,,0.00,VWS V14.01,2013-07-03 09:09:00,
2013-07-03 05:10:00,69.3,68.7,30.17,SW,221,0.0,0.0,98,0.00,,,0.00,VWS V14.01,2013-07-03 09:10:00,
2013-07-03 05:15:00,69.1,68.5,30.17,SW,219,0.0,0.0,98,0.00,,,0.00,VWS V14.01,2013-07-03 09:15:00,
2013-07-03 05:16:00,69.1,68.5,30.17,SW,220,0.0,0.0,98,0.00,,,0.00,VWS V14.01,2013-07-03 09:16:00,
2013-07-03 05:20:00,68.9,68.3,30.17,SW,219,0.0,0.0,98,0.00,,,0.00,VWS V14.01,2013-07-03 09:20:00,
2013-07-03 05:22:00,68.8,67.9,30.17,SW,220,0.0,0.0,97,0.00,,,0.00,VWS V14.01,2013-07-03 09:22:00,
2013-07-03 05:23:00,68.8,67.9,30.17,SW,220,0.0,0.0,97,0.00,,,0.00,VWS V14.01,2013-07-03 09:23:00,
2013-07-03 05:25:00,68.6,67.7,30.17,SW,220,0.0,0.0,97,0.00,,,0.00,VWS V14.01,2013-07-03 09:25:00,
2013-07-03 05:28:00,68.3,67.4,30.17,SW,220,0.0,0.0,97,0.00,,,0.00,VWS V14.01,2013-07-03 09:28:00,
2013-07-03 05:30:00,68.1,67.2,30.17,SW,219,0.0,0.0,97,0.00,,,0.00,VWS V14.01,2013-07-03 09:30:00,
2013-07-03 05:34:00,67.8,66.9,30.18,SW,217,0.0,0.0,97,0.00,,,0.00,VWS V14.01,2013-07-03 09:34:00,
2013-07-03 05:35:00,67.6,66.7,30.18,SW,218,0.0,0.0,97,0.00,,,0.00,VWS V14.01,2013-07-03 09:35:00,
2013-07-03 05:41:00,67.1,66.2,30.18,SW,217,0.0,0.0,97,0.00,,,0.00,VWS V14.01,2013-07-03 09:41:00,
2013-07-03 05:43:00,66.9,66.0,30.18,SW,217,0.0,0.0,97,0.00,,,0.00,VWS V14.01,2013-07-03 09:43:00,
2013-07-03 05:44:00,66.8,65.9,30.18,SW,217,0.0,0.0,97,0.00,,,0.00,VWS V14.01,2013-07-03 09:44:00,
2013-07-03 05:45:00,66.8,65.9,30.18,SW,217,0.0,0.0,97,0.00,,,0.00,VWS V14.01,2013-07-03 09:45:00,
2013-07-03 05:48:00,66.4,65.5,30.18,SW,217,0.0,0.0,97,0.00,,,0.00,VWS V14.01,2013-07-03 09:48:00,
2013-07-03 05:50:00,66.4,65.5,30.18,SW,217,0.0,0.0,97,0.00,,,0.00,VWS V14.01,2013-07-03 09:50:00,
2013-07-03 05:51:00,66.3,65.4,30.18,SW,217,0.0,0.0,97,0.00,,,0.00,VWS V14.01,2013-07-03 09:51:00,
2013-07-03 05:53:00,66.1,65.2,30.18,SW,217,0.0,0.0,97,0.00,,,0.00,VWS V14.01,2013-07-03 09:53:00,
2013-07-03 05:55:00,66.1,65.2,30.18,SW,217,0.0,0.0,97,0.00,,,0.00,VWS V14.01,2013-07-03 09:55:00,
2013-07-03 05:56:00,66.0,65.1,30.18,SW,217,0.0,0.0,97,0.00,,,0.00,VWS V14.01,2013-07-03 09:56:00,
2013-07-03 05:58:00,66.0,65.4,30.18,SSW,206,0.0,0.0,98,0.00,,,0.00,VWS V14.01,2013-07-03 09:58:00,
2013-07-03 06:00:00,66.0,65.4,30.18,SSW,206,0.0,0.0,98,0.00,,,0.00,VWS V14.01,2013-07-03 10:00:00,
2013-07-03 06:02:00,66.0,65.4,30.18,SSW,206,0.0,0.0,98,0.00,,,0.00,VWS V14.01,2013-07-03 10:02:00,
2013-07-03 06:03:00,66.0,65.4,30.18,SSW,206,0.0,0.0,98,0.00,,,0.00,VWS V14.01,2013-07-03 10:03:00,
2013-07-03 06:05:00,66.0,65.4,30.19,SSW,205,0.0,0.0,98,0.00,,,0.00,VWS V14.01,2013-07-03 10:05:00,
2013-07-03 06:06:00,66.0,65.4,30.19,SSW,205,0.0,0.0,98,0.00,,,0.00,VWS V14.01,2013-07-03 10:06:00,
2013-07-03 06:07:00,66.0,65.4,30.19,SSW,206,0.0,0.0,98,0.00,,,0.00,VWS V14.01,2013-07-03 10:07:00,
2013-07-03 06:11:00,65.8,65.2,30.19,SSW,206,0.0,0.0,98,0.00,,,0.00,VWS V14.01,2013-07-03 10:11:00,
2013-07-03 06:13:00,65.8,65.2,30.19,SSW,205,0.0,0.0,98,0.00,,,0.00,VWS V14.01,2013-07-03 10:13:00,
2013-07-03 06:14:00,65.8,65.2,30.19,SSW,206,0.0,0.0,98,0.00,,,0.00,VWS V14.01,2013-07-03 10:14:00,
2013-07-03 06:19:00,66.0,65.4,30.19,SSW,205,0.0,0.0,98,0.00,,,0.00,VWS V14.01,2013-07-03 10:19:00,
2013-07-03 06:20:00,66.0,65.4,30.19,SSW,205,0.0,0.0,98,0.00,,,0.00,VWS V14.01,2013-07-03 10:20:00,
2013-07-03 06:24:00,66.0,65.4,30.19,SSW,205,0.0,0.0,98,0.00,,,0.00,VWS V14.01,2013-07-03 10:24:00,
2013-07-03 06:25:00,66.0,65.4,30.19,SSW,205,0.0,0.0,98,0.00,,,0.00,VWS V14.01,2013-07-03 10:25:00,
2013-07-03 06:26:00,66.0,65.4,30.19,SSW,205,0.0,0.0,98,0.00,,,0.00,VWS V14.01,2013-07-03 10:26:00,
2013-07-03 06:28:00,66.1,65.5,30.19,SSW,206,0.0,0.0,98,0.00,,,0.00,VWS V14.01,2013-07-03 10:28:00,
2013-07-03 06:29:00,66.1,65.5,30.19,SSW,206,0.0,0.0,98,0.00,,,0.00,VWS V14.01,2013-07-03 10:29:00,
2013-07-03 06:31:00,66.1,65.5,30.19,SSW,206,0.0,0.0,98,0.00,,,0.00,VWS V14.01,2013-07-03 10:31:00,
2013-07-03 06:33:00,66.1,65.5,30.19,SSW,205,0.0,1.0,98,0.00,,,0.00,VWS V14.01,2013-07-03 10:33:00,
2013-07-03 06:37:00,66.4,65.8,30.19,SSW,205,0.0,0.0,98,0.00,,,0.00,VWS V14.01,2013-07-03 10:37:00,
2013-07-03 06:42:00,66.4,65.5,30.19,SSW,203,0.0,0.0,97,0.00,,,0.00,VWS V14.01,2013-07-03 10:42:00,
2013-07-03 06:44:00,66.4,65.8,30.19,SSW,202,0.0,0.0,98,0.00,,,0.00,VWS V14.01,2013-07-03 10:44:00,
2013-07-03 06:45:00,66.4,65.8,30.19,SSW,203,0.0,0.0,98,0.00,,,0.00,VWS V14.01,2013-07-03 10:45:00,
2013-07-03 06:48:00,66.4,65.8,30.19,SSW,203,0.0,0.0,98,0.00,,,0.00,VWS V14.01,2013-07-03 10:48:00,
2013-07-03 06:49:00,66.4,65.8,30.20,SSW,196,0.0,0.0,98,0.00,,,0.00,VWS V14.01,2013-07-03 10:49:00,
2013-07-03 06:50:00,66.6,66.0,30.20,SSW,197,0.0,0.0,98,0.00,,,0.00,VWS V14.01,2013-07-03 10:50:00,
2013-07-03 06:51:00,66.6,66.0,30.20,SSW,197,0.0,0.0,98,0.00,,,0.00,VWS V14.01,2013-07-03 10:51:00,
2013-07-03 06:55:00,66.9,66.3,30.20,SSW,197,0.0,0.0,98,0.00,,,0.00,VWS V14.01,2013-07-03 10:55:00,
2013-07-03 06:57:00,66.9,66.3,30.20,SSW,196,0.0,0.0,98,0.00,,,0.00,VWS V14.01,2013-07-03 10:57:00,
2013-07-03 07:00:00,66.9,66.3,30.20,SSW,196,0.0,0.0,98,0.00,,,0.00,VWS V14.01,2013-07-03 11:00:00,
2013-07-03 07:04:00,66.9,66.3,30.20,SSW,197,0.0,0.0,98,0.00,,,0.00,VWS V14.01,2013-07-03 11:04:00,
2013-07-03 07:06:00,67.1,66.5,30.20,SSW,197,0.0,0.0,98,0.00,,,0.00,VWS V14.01,2013-07-03 11:06:00,
2013-07-03 07:09:00,67.3,66.7,30.20,SSW,197,0.0,0.0,98,0.00,,,0.00,VWS V14.01,2013-07-03 11:09:00,
2013-07-03 07:10:00,67.3,66.7,30.20,SSW,196,0.0,0.0,98,0.00,,,0.00,VWS V14.01,2013-07-03 11:10:00,
2013-07-03 07:11:00,67.3,66.7,30.20,SSW,196,0.0,0.0,98,0.00,,,0.00,VWS V14.01,2013-07-03 11:11:00,
2013-07-03 07:12:00,67.3,66.4,30.20,SSW,196,0.0,0.0,97,0.00,,,0.00,VWS V14.01,2013-07-03 11:12:00,
2013-07-03 07:18:00,67.1,66.2,30.20,SSW,195,0.0,0.0,97,0.00,,,0.00,VWS V14.01,2013-07-03 11:18:00,
2013-07-03 07:19:00,67.1,66.2,30.20,SSW,195,0.0,0.0,97,0.00,,,0.00,VWS V14.01,2013-07-03 11:19:00,
2013-07-03 07:22:00,67.1,66.5,30.20,SSW,195,0.0,0.0,98,0.00,,,0.00,VWS V14.01,2013-07-03 11:22:00,
2013-07-03 07:25:00,67.1,66.2,30.20,SSW,194,0.0,3.0,97,0.00,,,0.00,VWS V14.01,2013-07-03 11:25:00,
2013-07-03 07:26:00,67.1,66.2,30.20,SSW,194,0.0,3.0,97,0.00,,,0.00,VWS V14.01,2013-07-03 11:26:00,
2013-07-03 07:29:00,67.4,66.8,30.20,SSW,194,0.0,3.0,98,0.00,,,0.00,VWS V14.01,2013-07-03 11:29:00,
2013-07-03 07:30:00,67.4,66.8,30.20,SSW,194,0.0,3.0,98,0.00,,,0.00,VWS V14.01,2013-07-03 11:30:00,
2013-07-03 07:32:00,67.8,67.2,30.20,SSE,159,5.0,7.0,98,0.00,,,0.00,VWS V14.01,2013-07-03 11:32:00,
2013-07-03 07:34:00,67.9,67.0,30.20,SSE,159,0.0,7.0,97,0.00,,,0.00,VWS V14.01,2013-07-03 11:34:00,
2013-07-03 07:35:00,67.9,67.0,30.20,SSE,159,0.0,7.0,97,0.00,,,0.00,VWS V14.01,2013-07-03 11:35:00,
2013-07-03 07:39:00,68.6,68.0,30.20,SSE,157,0.0,4.0,98,0.00,,,0.00,VWS V14.01,2013-07-03 11:39:00,
2013-07-03 07:40:00,68.8,68.2,30.20,SSE,157,0.0,4.0,98,0.00,,,0.00,VWS V14.01,2013-07-03 11:40:00,
2013-07-03 07:41:00,68.9,68.0,30.20,SSE,157,0.0,4.0,97,0.00,,,0.00,VWS V14.01,2013-07-03 11:41:00,
2013-07-03 07:42:00,69.1,68.2,30.20,SSE,157,0.0,4.0,97,0.00,,,0.00,VWS V14.01,2013-07-03 11:42:00,
2013-07-03 07:46:00,69.4,68.5,30.20,SSE,157,0.0,4.0,97,0.00,,,0.00,VWS V14.01,2013-07-03 11:46:00,
2013-07-03 07:47:00,69.6,68.7,30.20,SSE,156,5.0,5.0,97,0.00,,,0.00,VWS V14.01,2013-07-03 11:47:00,
2013-07-03 07:48:00,69.9,69.0,30.20,SSE,155,2.0,5.0,97,0.00,,,0.00,VWS V14.01,2013-07-03 11:48:00,
2013-07-03 07:52:00,70.3,69.1,30.20,SSE,155,0.0,6.0,96,0.00,,,0.00,VWS V14.01,2013-07-03 11:52:00,
2013-07-03 07:53:00,70.4,69.5,30.20,SSE,154,0.0,6.0,97,0.00,,,0.00,VWS V14.01,2013-07-03 11:53:00,
2013-07-03 07:54:00,70.4,69.2,30.20,SSE,148,0.0,6.0,96,0.00,,,0.00,VWS V14.01,2013-07-03 11:54:00,
2013-07-03 07:56:00,70.6,69.4,30.20,SSE,148,0.0,6.0,96,0.00,,,0.00,VWS V14.01,2013-07-03 11:56:00,
2013-07-03 07:58:00,70.8,69.6,30.20,SSE,148,0.0,6.0,96,0.00,,,0.00,VWS V14.01,2013-07-03 11:58:00,
2013-07-03 07:59:00,70.8,69.6,30.20,SSE,147,0.0,6.0,96,0.00,,,0.00,VWS V14.01,2013-07-03 11:59:00,
2013-07-03 08:00:00,70.8,69.3,30.20,SSE,147,4.0,6.0,95,0.00,,,0.00,VWS V14.01,2013-07-03 12:00:00,
2013-07-03 08:03:00,70.8,69.0,30.20,SE,146,5.0,6.0,94,0.00,,,0.00,VWS V14.01,2013-07-03 12:03:00,
2013-07-03 08:04:00,70.8,69.0,30.21,SE,146,0.0,6.0,94,0.00,,,0.00,VWS V14.01,2013-07-03 12:04:00,
2013-07-03 08:06:00,70.4,68.3,30.21,SE,146,0.0,2.0,93,0.00,,,0.00,VWS V14.01,2013-07-03 12:06:00,
2013-07-03 08:09:00,70.3,68.2,30.21,SE,146,0.0,2.0,93,0.00,,,0.00,VWS V14.01,2013-07-03 12:09:00,
2013-07-03 08:12:00,70.3,68.2,30.21,SE,146,0.0,2.0,93,0.00,,,0.00,VWS V14.01,2013-07-03 12:12:00,
2013-07-03 08:13:00,70.1,67.7,30.21,SE,146,2.0,4.0,92,0.00,,,0.00,VWS V14.01,2013-07-03 12:13:00,
2013-07-03 08:14:00,70.4,68.3,30.21,SE,146,0.0,5.0,93,0.00,,,0.00,VWS V14.01,2013-07-03 12:14:00,
2013-07-03 08:16:00,70.6,68.2,30.21,SE,145,0.0,5.0,92,0.00,,,0.00,VWS V14.01,2013-07-03 12:16:00,
2013-07-03 08:18:00,70.6,67.8,30.21,SE,144,0.0,5.0,91,0.00,,,0.00,VWS V14.01,2013-07-03 12:18:00,
2013-07-03 08:19:00,70.8,68.4,30.21,SE,144,0.0,5.0,92,0.00,,,0.00,VWS V14.01,2013-07-03 12:19:00,
2013-07-03 08:21:00,70.9,67.8,30.21,SE,143,5.0,5.0,90,0.00,,,0.00,VWS V14.01,2013-07-03 12:21:00,
2013-07-03 08:25:00,71.3,68.2,30.21,SSE,163,0.0,6.0,90,0.00,,,0.00,VWS V14.01,2013-07-03 12:25:00,
2013-07-03 08:26:00,71.6,68.8,30.21,SSE,163,0.0,6.0,91,0.00,,,0.00,VWS V14.01,2013-07-03 12:26:00,
2013-07-03 08:30:00,72.1,68.3,30.21,SSE,158,2.0,6.0,88,0.00,,,0.00,VWS V14.01,2013-07-03 12:30:00,
2013-07-03 08:31:00,72.1,68.3,30.21,SSE,159,4.0,7.0,88,0.00,,,0.00,VWS V14.01,2013-07-03 12:31:00,
2013-07-03 08:34:00,72.1,68.0,30.21,SSE,159,0.0,7.0,87,0.00,,,0.00,VWS V14.01,2013-07-03 12:34:00,
2013-07-03 08:36:00,72.1,68.3,30.21,SSE,158,4.0,6.0,88,0.00,,,0.00,VWS V14.01,2013-07-03 12:36:00,
2013-07-03 08:38:00,72.1,67.7,30.21,SSE,158,0.0,6.0,86,0.00,,,0.00,VWS V14.01,2013-07-03 12:38:00,
2013-07-03 08:42:00,72.1,68.0,30.21,SSE,154,5.0,6.0,87,0.00,,,0.00,VWS V14.01,2013-07-03 12:42:00,
2013-07-03 08:46:00,71.1,67.0,30.21,SSE,155,0.0,6.0,87,0.00,,,0.00,VWS V14.01,2013-07-03 12:46:00,
2013-07-03 08:47:00,71.1,66.7,30.21,SSE,155,0.0,6.0,86,0.00,,,0.00,VWS V14.01,2013-07-03 12:47:00,
2013-07-03 08:51:00,72.1,68.0,30.21,SSE,155,0.0,6.0,87,0.00,,,0.00,VWS V14.01,2013-07-03 12:51:00,
2013-07-03 08:52:00,72.1,68.0,30.21,SSE,155,0.0,6.0,87,0.00,,,0.00,VWS V14.01,2013-07-03 12:52:00,
2013-07-03 08:53:00,72.5,68.4,30.21,SSE,154,2.0,6.0,87,0.00,,,0.00,VWS V14.01,2013-07-03 12:53:00,
2013-07-03 08:55:00,72.5,67.7,30.21,SSE,153,2.0,6.0,85,0.00,,,0.00,VWS V14.01,2013-07-03 12:55:00,
2013-07-03 08:57:00,72.3,67.5,30.21,SSE,154,1.0,6.0,85,0.00,,,0.00,VWS V14.01,2013-07-03 12:57:00,
2013-07-03 08:58:00,72.3,67.5,30.21,SSE,148,6.0,6.0,85,0.00,,,0.00,VWS V14.01,2013-07-03 12:58:00,
2013-07-03 09:02:00,72.0,66.9,30.21,SSE,168,1.0,6.0,84,0.00,,,0.00,VWS V14.01,2013-07-03 13:02:00,
2013-07-03 09:03:00,72.0,67.2,30.21,SSE,168,6.0,7.0,85,0.00,,,0.00,VWS V14.01,2013-07-03 13:03:00,
2013-07-03 09:05:00,71.8,67.1,30.22,South,172,0.0,8.0,85,0.00,,,0.00,VWS V14.01,2013-07-03 13:05:00,
2013-07-03 09:09:00,72.0,67.9,30.22,South,188,3.0,9.0,87,0.00,,,0.00,VWS V14.01,2013-07-03 13:09:00,
2013-07-03 09:11:00,72.1,67.7,30.22,South,185,0.0,9.0,86,0.00,,,0.00,VWS V14.01,2013-07-03 13:11:00,
2013-07-03 09:15:00,72.1,68.0,30.22,South,175,2.0,9.0,87,0.00,,,0.00,VWS V14.01,2013-07-03 13:15:00,
2013-07-03 09:17:00,72.3,67.9,30.22,South,175,0.0,9.0,86,0.00,,,0.00,VWS V14.01,2013-07-03 13:17:00,
2013-07-03 09:21:00,72.5,68.4,30.21,South,179,2.0,9.0,87,0.00,,,0.00,VWS V14.01,2013-07-03 13:21:00,
2013-07-03 09:22:00,72.5,68.4,30.21,South,179,0.0,9.0,87,0.00,,,0.00,VWS V14.01,2013-07-03 13:22:00,
2013-07-03 09:25:00,73.5,69.4,30.21,South,175,5.0,9.0,87,0.00,,,0.00,VWS V14.01,2013-07-03 13:25:00,
2013-07-03 09:26:00,73.9,69.8,30.21,SSE,163,4.0,9.0,87,0.00,,,0.00,VWS V14.01,2013-07-03 13:26:00,
2013-07-03 09:27:00,74.0,69.2,30.21,SSE,161,2.0,9.0,85,0.00,,,0.00,VWS V14.01,2013-07-03 13:27:00,
2013-07-03 09:28:00,74.2,69.4,30.21,SSE,163,2.0,9.0,85,0.00,,,0.00,VWS V14.01,2013-07-03 13:28:00,
2013-07-03 09:33:00,74.9,69.4,30.21,SSW,193,2.0,9.0,83,0.00,,,0.00,VWS V14.01,2013-07-03 13:33:00,
2013-07-03 09:34:00,75.1,69.6,30.21,South,179,5.0,9.0,83,0.00,,,0.00,VWS V14.01,2013-07-03 13:34:00,
2013-07-03 09:35:00,75.1,69.2,30.21,South,179,2.0,9.0,82,0.00,,,0.00,VWS V14.01,2013-07-03 13:35:00,
2013-07-03 09:38:00,75.4,69.5,30.21,SSE,154,4.0,6.0,82,0.00,,,0.00,VWS V14.01,2013-07-03 13:38:00,
2013-07-03 09:40:00,75.3,68.7,30.21,South,179,6.0,7.0,80,0.00,,,0.00,VWS V14.01,2013-07-03 13:40:00,
2013-07-03 09:42:00,74.9,68.3,30.21,South,173,0.0,9.0,80,0.00,,,0.00,VWS V14.01,2013-07-03 13:42:00,
2013-07-03 09:44:00,74.6,68.4,30.21,South,182,5.0,9.0,81,0.00,,,0.00,VWS V14.01,2013-07-03 13:44:00,
2013-07-03 09:45:00,74.6,68.0,30.21,SSE,157,4.0,9.0,80,0.00,,,0.00,VWS V14.01,2013-07-03 13:45:00,
2013-07-03 09:46:00,74.6,68.4,30.21,SE,140,7.0,9.0,81,0.00,,,0.00,VWS V14.01,2013-07-03 13:46:00,
2013-07-03 09:47:00,74.6,68.4,30.21,SE,140,4.0,9.0,81,0.00,,,0.00,VWS V14.01,2013-07-03 13:47:00,
2013-07-03 09:49:00,74.6,68.4,30.22,SSE,156,6.0,9.0,81,0.00,,,0.00,VWS V14.01,2013-07-03 13:49:00,
2013-07-03 09:51:00,75.1,69.9,30.22,SSE,167,5.0,9.0,84,0.00,,,0.00,VWS V14.01,2013-07-03 13:51:00,
2013-07-03 09:52:00,75.3,70.1,30.22,SSE,158,4.0,9.0,84,0.00,,,0.00,VWS V14.01,2013-07-03 13:52:00,
2013-07-03 09:53:00,75.3,68.3,30.22,SSW,195,5.0,9.0,79,0.00,,,0.00,VWS V14.01,2013-07-03 13:53:00,
2013-07-03 09:55:00,75.3,68.7,30.22,South,169,5.0,9.0,80,0.00,,,0.00,VWS V14.01,2013-07-03 13:55:00,
2013-07-03 09:59:00,75.1,68.9,30.22,South,182,7.0,9.0,81,0.00,,,0.00,VWS V14.01,2013-07-03 13:59:00,
2013-07-03 10:00:00,75.1,69.2,30.22,South,188,3.0,9.0,82,0.00,,,0.00,VWS V14.01,2013-07-03 14:00:00,
2013-07-03 10:01:00,75.1,69.2,30.22,South,188,2.0,9.0,82,0.00,,,0.00,VWS V14.01,2013-07-03 14:01:00,
2013-07-03 10:05:00,75.3,69.4,30.22,SE,137,4.0,6.0,82,0.00,,,0.00,VWS V14.01,2013-07-03 14:05:00,
2013-07-03 10:07:00,75.8,69.9,30.22,SSE,155,2.0,8.0,82,0.00,,,0.00,VWS V14.01,2013-07-03 14:07:00,
2013-07-03 10:08:00,75.8,69.6,30.22,SSE,148,4.0,8.0,81,0.00,,,0.00,VWS V14.01,2013-07-03 14:08:00,
2013-07-03 10:10:00,75.6,68.3,30.22,South,177,0.0,8.0,78,0.00,,,0.00,VWS V14.01,2013-07-03 14:10:00,
2013-07-03 10:12:00,75.3,67.2,30.22,SE,145,5.0,8.0,76,0.00,,,0.00,VWS V14.01,2013-07-03 14:12:00,
2013-07-03 10:13:00,75.1,67.4,30.22,SE,140,9.0,9.0,77,0.00,,,0.00,VWS V14.01,2013-07-03 14:13:00,
2013-07-03 10:14:00,74.9,67.6,30.22,SE,145,4.0,9.0,78,0.00,,,0.00,VWS V14.01,2013-07-03 14:14:00,
2013-07-03 10:16:00,74.4,67.1,30.22,SE,143,7.0,9.0,78,0.00,,,0.00,VWS V14.01,2013-07-03 14:16:00,
2013-07-03 10:17:00,74.2,66.9,30.22,SE,140,2.0,9.0,78,0.00,,,0.00,VWS V14.01,2013-07-03 14:17:00,
2013-07-03 10:18:00,74.0,67.1,30.22,SSE,148,5.0,9.0,79,0.00,,,0.00,VWS V14.01,2013-07-03 14:18:00,
2013-07-03 10:21:00,73.7,67.9,30.22,SE,138,0.0,9.0,82,0.00,,,0.00,VWS V14.01,2013-07-03 14:21:00,
2013-07-03 10:23:00,73.5,67.7,30.22,SE,138,4.0,9.0,82,0.00,,,0.00,VWS V14.01,2013-07-03 14:23:00,
2013-07-03 10:24:00,73.7,68.6,30.22,SE,138,4.0,9.0,84,0.00,,,0.00,VWS V14.01,2013-07-03 14:24:00,
2013-07-03 10:29:00,73.5,68.4,30.22,SE,138,7.0,9.0,84,0.00,,,0.00,VWS V14.01,2013-07-03 14:29:00,
2013-07-03 10:31:00,73.5,68.7,30.22,SSE,158,2.0,9.0,85,0.00,,,0.00,VWS V14.01,2013-07-03 14:31:00,
2013-07-03 10:32:00,73.5,68.4,30.22,SSE,158,4.0,9.0,84,0.00,,,0.00,VWS V14.01,2013-07-03 14:32:00,
2013-07-03 10:33:00,73.5,68.4,30.22,South,175,0.0,9.0,84,0.00,,,0.00,VWS V14.01,2013-07-03 14:33:00,
2013-07-03 10:35:00,73.5,68.4,30.22,South,177,4.0,5.0,84,0.00,,,0.00,VWS V14.01,2013-07-03 14:35:00,
2013-07-03 10:36:00,73.7,68.6,30.22,South,178,0.0,5.0,84,0.00,,,0.00,VWS V14.01,2013-07-03 14:36:00,
2013-07-03 10:38:00,73.7,68.6,30.22,SSE,150,5.0,8.0,84,0.00,,,0.00,VWS V14.01,2013-07-03 14:38:00,
2013-07-03 10:40:00,73.3,68.2,30.22,SSE,159,4.0,8.0,84,0.00,,,0.00,VWS V14.01,2013-07-03 14:40:00,
2013-07-03 10:41:00,73.3,67.8,30.22,SSE,152,5.0,8.0,83,0.00,,,0.00,VWS V14.01,2013-07-03 14:41:00,
2013-07-03 10:46:00,73.3,68.2,30.22,South,182,5.0,9.0,84,0.00,,,0.00,VWS V14.01,2013-07-03 14:46:00,
2013-07-03 10:47:00,73.5,68.4,30.22,SSE,158,2.0,9.0,84,0.00,,,0.00,VWS V14.01,2013-07-03 14:47:00,
2013-07-03 10:52:00,73.0,67.5,30.22,SE,139,4.0,10.0,83,0.00,,,0.00,VWS V14.01,2013-07-03 14:52:00,
2013-07-03 10:53:00,73.0,67.5,30.22,SE,140,6.0,10.0,83,0.00,,,0.00,VWS V14.01,2013-07-03 14:53:00,
2013-07-03 10:54:00,73.0,67.5,30.22,South,186,7.0,10.0,83,0.00,,,0.00,VWS V14.01,2013-07-03 14:54:00,
2013-07-03 10:58:00,72.5,67.1,30.22,SE,140,5.0,13.0,83,0.00,,,0.00,VWS V14.01,2013-07-03 14:58:00,
2013-07-03 10:59:00,72.5,67.4,30.22,SSE,155,8.0,13.0,84,0.00,,,0.00,VWS V14.01,2013-07-03 14:59:00,
2013-07-03 11:01:00,72.3,67.2,30.22,South,186,3.0,13.0,84,0.00,,,0.00,VWS V14.01,2013-07-03 15:01:00,
2013-07-03 11:04:00,73.0,68.2,30.22,SSE,163,0.0,13.0,85,0.00,,,0.00,VWS V14.01,2013-07-03 15:04:00,
2013-07-03 11:05:00,73.2,68.4,30.22,SSE,157,4.0,13.0,85,0.00,,,0.00,VWS V14.01,2013-07-03 15:05:00,
2013-07-03 11:09:00,74.2,69.4,30.22,SSW,195,0.0,7.0,85,0.00,,,0.00,VWS V14.01,2013-07-03 15:09:00,
2013-07-03 11:10:00,74.4,69.6,30.22,SSE,160,4.0,7.0,85,0.00,,,0.00,VWS V14.01,2013-07-03 15:10:00,
2013-07-03 11:15:00,74.9,70.1,30.22,South,179,5.0,11.0,85,0.00,,,0.00,VWS V14.01,2013-07-03 15:15:00,
2013-07-03 11:17:00,74.9,69.7,30.22,South,175,7.0,11.0,84,0.00,,,0.00,VWS V14.01,2013-07-03 15:17:00,
2013-07-03 11:20:00,74.6,69.4,30.22,South,188,9.0,11.0,84,0.00,,,0.00,VWS V14.01,2013-07-03 15:20:00,
2013-07-03 11:22:00,74.4,69.3,30.22,South,171,0.0,11.0,84,0.00,,,0.00,VWS V14.01,2013-07-03 15:22:00,
2013-07-03 11:24:00,74.6,69.8,30.22,South,189,0.0,11.0,85,0.00,,,0.00,VWS V14.01,2013-07-03 15:24:00,
2013-07-03 11:26:00,74.9,70.4,30.22,South,186,0.0,11.0,86,0.00,,,0.00,VWS V14.01,2013-07-03 15:26:00,
2013-07-03 11:27:00,75.3,70.8,30.22,South,182,3.0,11.0,86,0.00,,,0.00,VWS V14.01,2013-07-03 15:27:00,
2013-07-03 11:29:00,75.4,70.2,30.22,South,169,0.0,11.0,84,0.00,,,0.00,VWS V14.01,2013-07-03 15:29:00,
2013-07-03 11:31:00,75.4,70.2,30.22,South,178,2.0,11.0,84,0.00,,,0.00,VWS V14.01,2013-07-03 15:31:00,
2013-07-03 11:35:00,75.4,70.2,30.21,South,172,0.0,7.0,84,0.00,,,0.00,VWS V14.01,2013-07-03 15:35:00,
2013-07-03 11:37:00,75.3,70.1,30.21,SSE,167,4.0,7.0,84,0.00,,,0.00,VWS V14.01,2013-07-03 15:37:00,
2013-07-03 11:38:00,75.4,70.9,30.21,SSE,158,6.0,8.0,86,0.00,,,0.00,VWS V14.01,2013-07-03 15:38:00,
2013-07-03 11:40:00,76.0,70.8,30.21,SSE,165,4.0,8.0,84,0.00,,,0.00,VWS V14.01,2013-07-03 15:40:00,
2013-07-03 11:43:00,75.8,69.6,30.21,South,175,4.0,9.0,81,0.00,,,0.00,VWS V14.01,2013-07-03 15:43:00,
2013-07-03 11:47:00,75.6,69.4,30.21,South,176,4.0,9.0,81,0.00,,,0.00,VWS V14.01,2013-07-03 15:47:00,
2013-07-03 11:53:00,74.6,69.1,30.21,SSE,150,5.0,11.0,83,0.00,,,0.00,VWS V14.01,2013-07-03 15:53:00,
2013-07-03 11:55:00,74.4,68.9,30.21,SSE,167,6.0,11.0,83,0.00,,,0.00,VWS V14.01,2013-07-03 15:55:00,
2013-07-03 11:57:00,74.2,68.4,30.21,SE,144,10.0,11.0,82,0.00,,,0.00,VWS V14.01,2013-07-03 15:57:00,
2013-07-03 11:59:00,73.9,67.7,30.21,SE,142,5.0,11.0,81,0.00,,,0.00,VWS V14.01,2013-07-03 15:59:00,
2013-07-03 12:00:00,73.7,67.9,30.21,SSE,153,4.0,11.0,82,0.00,,,0.00,VWS V14.01,2013-07-03 16:00:00,
2013-07-03 12:03:00,73.3,67.5,30.21,South,173,5.0,11.0,82,0.00,,,0.00,VWS V14.01,2013-07-03 16:03:00,
2013-07-03 12:04:00,73.0,67.2,30.22,SSE,167,2.0,11.0,82,0.00,,,0.00,VWS V14.01,2013-07-03 16:04:00,
2013-07-03 12:05:00,73.0,67.2,30.22,South,176,4.0,7.0,82,0.00,,,0.00,VWS V14.01,2013-07-03 16:05:00,
2013-07-03 12:07:00,72.8,67.3,30.22,South,179,4.0,9.0,83,0.00,,,0.00,VWS V14.01,2013-07-03 16:07:00,
2013-07-03 12:10:00,72.5,67.4,30.22,SSW,192,4.0,11.0,84,0.00,,,0.00,VWS V14.01,2013-07-03 16:10:00,
2013-07-03 12:11:00,72.5,67.4,30.22,South,169,5.0,11.0,84,0.00,,,0.00,VWS V14.01,2013-07-03 16:11:00,
2013-07-03 12:14:00,72.3,67.5,30.22,SSE,167,6.0,11.0,85,0.00,,,0.00,VWS V14.01,2013-07-03 16:14:00,
2013-07-03 12:17:00,72.1,67.7,30.22,SE,146,9.0,12.0,86,0.00,,,0.00,VWS V14.01,2013-07-03 16:17:00,
2013-07-03 12:18:00,72.0,67.6,30.22,SSE,165,7.0,12.0,86,0.00,,,0.00,VWS V14.01,2013-07-03 16:18:00,
2013-07-03 12:19:00,72.0,67.9,30.22,South,183,8.0,14.0,87,0.00,,,0.00,VWS V14.01,2013-07-03 16:19:00,
2013-07-03 12:24:00,71.6,67.9,30.22,South,190,4.0,17.0,88,0.00,,,0.00,VWS V14.01,2013-07-03 16:24:00,
2013-07-03 12:25:00,71.5,67.8,30.22,South,169,8.0,18.0,88,0.00,,,0.00,VWS V14.01,2013-07-03 16:25:00,
2013-07-03 12:30:00,71.5,68.4,30.22,SSW,202,11.0,18.0,90,0.00,,,0.00,VWS V14.01,2013-07-03 16:30:00,
2013-07-03 12:31:00,71.6,68.8,30.22,SSW,198,4.0,18.0,91,0.00,,,0.00,VWS V14.01,2013-07-03 16:31:00,
2013-07-03 12:34:00,72.3,69.8,30.22,SSW,202,16.0,18.0,92,0.00,,,0.00,VWS V14.01,2013-07-03 16:34:00,
2013-07-03 12:36:00,73.2,71.1,30.22,SW,223,8.0,13.0,93,0.00,,,0.00,VWS V14.01,2013-07-03 16:36:00,
2013-07-03 12:37:00,73.5,71.4,30.22,SSW,194,17.0,17.0,93,0.00,,,0.00,VWS V14.01,2013-07-03 16:37:00,
2013-07-03 12:40:00,74.4,72.2,30.22,SSW,213,12.0,19.0,93,0.00,,,0.00,VWS V14.01,2013-07-03 16:40:00,
2013-07-03 12:42:00,74.7,72.9,30.22,South,179,4.0,19.0,94,0.00,,,0.00,VWS V14.01,2013-07-03 16:42:00,
2013-07-03 12:43:00,74.9,73.1,30.22,SSE,158,7.0,19.0,94,0.00,,,0.00,VWS V14.01,2013-07-03 16:43:00,
2013-07-03 12:46:00,75.1,73.3,30.22,South,179,0.0,19.0,94,0.00,,,0.00,VWS V14.01,2013-07-03 16:46:00,
2013-07-03 12:47:00,75.1,72.9,30.22,South,182,1.0,19.0,93,0.06,,,0.06,VWS V14.01,2013-07-03 16:47:00,
2013-07-03 12:48:00,74.9,73.1,30.22,South,182,1.0,19.0,94,0.06,,,0.06,VWS V14.01,2013-07-03 16:48:00,
2013-07-03 12:52:00,75.1,73.3,30.23,SSE,153,2.0,19.0,94,0.06,,,0.06,VWS V14.01,2013-07-03 16:52:00,
2013-07-03 12:53:00,74.9,73.1,30.23,SSE,150,5.0,19.0,94,0.07,,,0.07,VWS V14.01,2013-07-03 16:53:00,
2013-07-03 12:54:00,74.9,72.7,30.23,SSE,150,2.0,19.0,93,0.07,,,0.07,VWS V14.01,2013-07-03 16:54:00,
2013-07-03 12:56:00,74.6,72.4,30.23,SSE,167,2.0,19.0,93,0.08,,,0.08,VWS V14.01,2013-07-03 16:56:00,
2013-07-03 12:58:00,74.2,72.1,30.23,South,174,0.0,19.0,93,0.14,,,0.14,VWS V14.01,2013-07-03 16:58:00,
2013-07-03 13:01:00,73.7,71.6,30.23,SSE,162,5.0,19.0,93,0.24,,,0.24,VWS V14.01,2013-07-03 17:01:00,
2013-07-03 13:03:00,73.2,71.1,30.23,SSE,160,5.0,19.0,93,0.28,,,0.28,VWS V14.01,2013-07-03 17:03:00,
2013-07-03 13:04:00,73.0,70.9,30.23,SSE,158,6.0,19.0,93,0.31,,,0.31,VWS V14.01,2013-07-03 17:04:00,
2013-07-03 13:08:00,72.3,70.5,30.23,SE,140,7.0,9.0,94,0.42,,,0.42,VWS V14.01,2013-07-03 17:08:00,
2013-07-03 13:09:00,72.1,70.3,30.23,SSE,158,2.0,9.0,94,0.45,,,0.45,VWS V14.01,2013-07-03 17:09:00,
2013-07-03 13:10:00,72.0,70.2,30.23,South,175,0.0,9.0,94,0.47,,,0.47,VWS V14.01,2013-07-03 17:10:00,
2013-07-03 13:14:00,71.8,70.0,30.23,SSE,163,0.0,9.0,94,0.54,,,0.54,VWS V14.01,2013-07-03 17:14:00,
2013-07-03 13:15:00,72.0,70.5,30.23,SSE,164,0.0,9.0,95,0.56,,,0.56,VWS V14.01,2013-07-03 17:15:00,
2013-07-03 13:16:00,72.0,70.5,30.23,SSE,164,0.0,9.0,95,0.57,,,0.57,VWS V14.01,2013-07-03 17:16:00,
2013-07-03 13:20:00,72.1,70.6,30.22,South,170,5.0,9.0,95,0.62,,,0.62,VWS V14.01,2013-07-03 17:20:00,
2013-07-03 13:24:00,72.3,70.8,30.22,SSW,207,8.0,10.0,95,0.65,,,0.65,VWS V14.01,2013-07-03 17:24:00,
2013-07-03 13:29:00,72.5,71.0,30.22,South,180,0.0,10.0,95,0.65,,,0.65,VWS V14.01,2013-07-03 17:29:00,
2013-07-03 13:30:00,72.5,71.0,30.22,South,178,0.0,10.0,95,0.65,,,0.65,VWS V14.01,2013-07-03 17:30:00,
2013-07-03 13:32:00,72.7,71.5,30.22,SSE,157,6.0,10.0,96,0.65,,,0.65,VWS V14.01,2013-07-03 17:32:00,
2013-07-03 13:37:00,72.5,71.0,30.22,SSE,163,7.0,9.0,95,0.65,,,0.65,VWS V14.01,2013-07-03 17:37:00,
2013-07-03 13:38:00,72.5,71.0,30.22,SSE,161,8.0,9.0,95,0.65,,,0.65,VWS V14.01,2013-07-03 17:38:00,
2013-07-03 13:39:00,72.5,71.3,30.22,SSE,158,6.0,9.0,96,0.65,,,0.65,VWS V14.01,2013-07-03 17:39:00,
2013-07-03 13:43:00,72.8,71.6,30.22,SSE,160,5.0,12.0,96,0.65,,,0.65,VWS V14.01,2013-07-03 17:43:00,
2013-07-03 13:45:00,73.0,71.8,30.22,South,190,7.0,14.0,96,0.65,,,0.65,VWS V14.01,2013-07-03 17:45:00,
2013-07-03 13:46:00,73.0,71.8,30.22,SSE,163,7.0,14.0,96,0.65,,,0.65,VWS V14.01,2013-07-03 17:46:00,
2013-07-03 13:48:00,73.7,72.8,30.22,SE,143,2.0,14.0,97,0.65,,,0.65,VWS V14.01,2013-07-03 17:48:00,
2013-07-03 13:51:00,74.6,73.7,30.21,SSE,168,7.0,14.0,97,0.65,,,0.65,VWS V14.01,2013-07-03 17:51:00,
2013-07-03 13:55:00,74.9,74.0,30.21,South,189,6.0,14.0,97,0.65,,,0.65,VWS V14.01,2013-07-03 17:55:00,
2013-07-03 14:00:00,75.3,74.1,30.21,SE,138,5.0,14.0,96,0.65,,,0.65,VWS V14.01,2013-07-03 18:00:00,
2013-07-03 14:01:00,75.3,74.1,30.21,SSE,154,4.0,14.0,96,0.65,,,0.65,VWS V14.01,2013-07-03 18:01:00,
2013-07-03 14:06:00,75.4,74.2,30.21,SE,132,7.0,13.0,96,0.32,,,0.65,VWS V14.01,2013-07-03 18:06:00,
2013-07-03 14:07:00,75.3,74.1,30.21,SSE,159,6.0,13.0,96,0.32,,,0.65,VWS V14.01,2013-07-03 18:07:00,
2013-07-03 14:08:00,75.3,74.1,30.21,South,169,4.0,13.0,96,0.32,,,0.65,VWS V14.01,2013-07-03 18:08:00,
2013-07-03 14:12:00,75.1,73.9,30.21,SE,140,4.0,13.0,96,0.32,,,0.65,VWS V14.01,2013-07-03 18:12:00,
2013-07-03 14:14:00,75.1,73.9,30.21,South,178,5.0,13.0,96,0.32,,,0.65,VWS V14.01,2013-07-03 18:14:00,
2013-07-03 14:18:00,75.3,74.1,30.21,SSW,196,9.0,13.0,96,0.32,,,0.65,VWS V14.01,2013-07-03 18:18:00,
2013-07-03 14:19:00,75.3,74.1,30.19,SE,138,5.0,13.0,96,0.32,,,0.65,VWS V14.01,2013-07-03 18:19:00,
2013-07-03 14:23:00,75.1,73.9,30.19,South,171,7.0,13.0,96,0.32,,,0.65,VWS V14.01,2013-07-03 18:23:00,
2013-07-03 14:26:00,75.1,73.9,30.19,South,179,9.0,13.0,96,0.32,,,0.65,VWS V14.01,2013-07-03 18:26:00,
2013-07-03 14:28:00,75.3,74.1,30.19,SSE,164,5.0,13.0,96,0.32,,,0.65,VWS V14.01,2013-07-03 18:28:00,
2013-07-03 14:32:00,75.6,74.4,30.19,SSE,153,10.0,13.0,96,0.32,,,0.65,VWS V14.01,2013-07-03 18:32:00,
2013-07-03 14:33:00,75.6,74.4,30.19,SSW,205,11.0,13.0,96,0.32,,,0.65,VWS V14.01,2013-07-03 18:33:00,
2013-07-03 14:34:00,75.4,74.2,30.19,SSE,168,7.0,13.0,96,0.32,,,0.65,VWS V14.01,2013-07-03 18:34:00,
2013-07-03 14:35:00,75.3,73.8,30.19,SSE,165,9.0,16.0,95,0.00,,,0.65,VWS V14.01,2013-07-03 18:35:00,
2013-07-03 14:39:00,74.6,73.1,30.19,South,188,10.0,16.0,95,0.00,,,0.65,VWS V14.01,2013-07-03 18:39:00,
2013-07-03 14:40:00,74.6,73.1,30.19,SSE,161,10.0,16.0,95,0.00,,,0.65,VWS V14.01,2013-07-03 18:40:00,
2013-07-03 14:44:00,74.6,73.1,30.19,South,170,7.0,16.0,95,0.00,,,0.65,VWS V14.01,2013-07-03 18:44:00,
2013-07-03 14:45:00,74.6,73.1,30.19,SSW,207,7.0,16.0,95,0.00,,,0.65,VWS V14.01,2013-07-03 18:45:00,
2013-07-03 14:46:00,74.4,72.9,30.19,SSE,150,7.0,16.0,95,0.00,,,0.65,VWS V14.01,2013-07-03 18:46:00,
2013-07-03 14:49:00,74.2,72.4,30.19,SSE,165,6.0,16.0,94,0.00,,,0.65,VWS V14.01,2013-07-03 18:49:00,
2013-07-03 14:50:00,74.0,72.2,30.19,South,171,9.0,16.0,94,0.00,,,0.65,VWS V14.01,2013-07-03 18:50:00,
2013-07-03 14:52:00,74.0,72.2,30.19,SSE,165,5.0,16.0,94,0.00,,,0.65,VWS V14.01,2013-07-03 18:52:00,
2013-07-03 14:56:00,74.2,72.7,30.19,SSW,192,7.0,16.0,95,0.00,,,0.65,VWS V14.01,2013-07-03 18:56:00,
2013-07-03 14:57:00,74.4,72.6,30.19,South,182,10.0,16.0,94,0.00,,,0.65,VWS V14.01,2013-07-03 18:57:00,
2013-07-03 14:59:00,74.4,72.6,30.19,South,175,7.0,16.0,94,0.00,,,0.65,VWS V14.01,2013-07-03 18:59:00,
2013-07-03 15:01:00,74.4,72.6,30.19,South,176,7.0,16.0,94,0.00,,,0.65,VWS V14.01,2013-07-03 19:01:00,
2013-07-03 15:03:00,74.4,72.2,30.19,South,181,8.0,16.0,93,0.00,,,0.65,VWS V14.01,2013-07-03 19:03:00,
2013-07-03 15:05:00,74.4,72.2,30.19,SSE,163,7.0,16.0,93,0.00,,,0.65,VWS V14.01,2013-07-03 19:05:00,
2013-07-03 15:07:00,74.0,71.5,30.19,SSW,207,7.0,13.0,92,0.00,,,0.65,VWS V14.01,2013-07-03 19:07:00,
2013-07-03 15:08:00,74.0,71.5,30.19,SSW,202,5.0,13.0,92,0.00,,,0.65,VWS V14.01,2013-07-03 19:08:00,
2013-07-03 15:12:00,74.2,71.7,30.19,SSW,205,4.0,15.0,92,0.00,,,0.65,VWS V14.01,2013-07-03 19:12:00,
2013-07-03 15:13:00,74.2,71.7,30.19,South,187,5.0,15.0,92,0.00,,,0.65,VWS V14.01,2013-07-03 19:13:00,
2013-07-03 15:16:00,74.6,72.1,30.19,South,180,2.0,15.0,92,0.00,,,0.65,VWS V14.01,2013-07-03 19:16:00,
2013-07-03 15:17:00,74.6,71.8,30.19,South,176,2.0,15.0,91,0.00,,,0.65,VWS V14.01,2013-07-03 19:17:00,
2013-07-03 15:18:00,74.6,72.1,30.19,South,185,8.0,15.0,92,0.00,,,0.65,VWS V14.01,2013-07-03 19:18:00,
2013-07-03 15:21:00,74.4,71.3,30.18,SSE,155,5.0,15.0,90,0.00,,,0.65,VWS V14.01,2013-07-03 19:21:00,
2013-07-03 15:22:00,74.4,71.3,30.18,SSE,166,4.0,15.0,90,0.00,,,0.65,VWS V14.01,2013-07-03 19:22:00,
2013-07-03 15:24:00,74.6,71.5,30.18,SSE,153,7.0,15.0,90,0.00,,,0.65,VWS V14.01,2013-07-03 19:24:00,
2013-07-03 15:29:00,74.7,70.9,30.18,SSE,163,8.0,15.0,88,0.00,,,0.65,VWS V14.01,2013-07-03 19:29:00,
2013-07-03 15:30:00,74.6,70.8,30.18,SSW,201,7.0,15.0,88,0.00,,,0.65,VWS V14.01,2013-07-03 19:30:00,
2013-07-03 15:34:00,74.4,70.3,30.17,SSW,194,10.0,15.0,87,0.00,,,0.65,VWS V14.01,2013-07-03 19:34:00,
2013-07-03 15:37:00,74.4,70.3,30.17,South,180,9.0,15.0,87,0.00,,,0.65,VWS V14.01,2013-07-03 19:37:00,
2013-07-03 15:38:00,74.4,70.3,30.17,SSW,200,9.0,15.0,87,0.00,,,0.65,VWS V14.01,2013-07-03 19:38:00,
2013-07-03 15:39:00,74.2,69.8,30.17,SSE,161,7.0,15.0,86,0.00,,,0.65,VWS V14.01,2013-07-03 19:39:00,
2013-07-03 15:40:00,74.2,69.8,30.17,SSE,164,8.0,15.0,86,0.00,,,0.65,VWS V14.01,2013-07-03 19:40:00,
2013-07-03 15:43:00,74.0,69.2,30.17,SSW,194,10.0,15.0,85,0.00,,,0.65,VWS V14.01,2013-07-03 19:43:00,
2013-07-03 15:44:00,74.0,69.6,30.17,SSW,200,10.0,15.0,86,0.00,,,0.65,VWS V14.01,2013-07-03 19:44:00,
2013-07-03 15:50:00,74.6,70.1,30.17,SSE,163,7.0,17.0,86,0.00,,,0.65,VWS V14.01,2013-07-03 19:50:00,
2013-07-03 15:51:00,74.7,70.2,30.17,SSW,204,8.0,17.0,86,0.00,,,0.65,VWS V14.01,2013-07-03 19:51:00,
2013-07-03 15:53:00,74.9,70.4,30.17,SSE,157,6.0,17.0,86,0.00,,,0.65,VWS V14.01,2013-07-03 19:53:00,
2013-07-03 15:55:00,75.1,70.6,30.17,SSW,193,13.0,17.0,86,0.00,,,0.65,VWS V14.01,2013-07-03 19:55:00,
2013-07-03 15:56:00,75.1,70.6,30.17,South,171,7.0,17.0,86,0.00,,,0.65,VWS V14.01,2013-07-03 19:56:00,
2013-07-03 16:00:00,75.3,70.5,30.17,South,183,9.0,17.0,85,0.00,,,0.65,VWS V14.01,2013-07-03 20:00:00,
2013-07-03 16:01:00,75.3,70.5,30.17,South,180,3.0,17.0,85,0.00,,,0.65,VWS V14.01,2013-07-03 20:01:00,
2013-07-03 16:04:00,75.3,70.5,30.16,South,190,2.0,17.0,85,0.00,,,0.65,VWS V14.01,2013-07-03 20:04:00,
2013-07-03 16:06:00,75.4,70.2,30.16,South,179,5.0,16.0,84,0.00,,,0.65,VWS V14.01,2013-07-03 20:06:00,
2013-07-03 16:08:00,75.4,70.2,30.16,SSW,204,11.0,16.0,84,0.00,,,0.65,VWS V14.01,2013-07-03 20:08:00,
2013-07-03 16:11:00,75.8,71.0,30.16,SW,232,8.0,16.0,85,0.00,,,0.65,VWS V14.01,2013-07-03 20:11:00,
2013-07-03 16:15:00,76.1,70.9,30.16,South,184,7.0,16.0,84,0.00,,,0.65,VWS V14.01,2013-07-03 20:15:00,
2013-07-03 16:17:00,76.3,71.1,30.16,SSE,148,7.0,16.0,84,0.00,,,0.65,VWS V14.01,2013-07-03 20:17:00,
2013-07-03 16:18:00,76.5,71.3,30.16,SSW,203,7.0,16.0,84,0.00,,,0.65,VWS V14.01,2013-07-03 20:18:00,
2013-07-03 16:20:00,76.5,71.3,30.16,South,171,11.0,16.0,84,0.00,,,0.65,VWS V14.01,2013-07-03 20:20:00,
2013-07-03 16:24:00,76.3,70.8,30.16,SSE,154,8.0,16.0,83,0.00,,,0.65,VWS V14.01,2013-07-03 20:24:00,
2013-07-03 16:25:00,76.3,70.4,30.16,South,174,8.0,16.0,82,0.00,,,0.65,VWS V14.01,2013-07-03 20:25:00,
2013-07-03 16:26:00,76.1,70.2,30.16,South,187,13.0,16.0,82,0.00,,,0.65,VWS V14.01,2013-07-03 20:26:00,
2013-07-03 16:28:00,76.0,70.1,30.16,South,185,4.0,16.0,82,0.00,,,0.65,VWS V14.01,2013-07-03 20:28:00,
2013-07-03 16:30:00,75.8,69.6,30.16,SSE,161,7.0,16.0,81,0.00,,,0.65,VWS V14.01,2013-07-03 20:30:00,
2013-07-03 16:31:00,75.6,69.7,30.16,South,177,15.0,16.0,82,0.00,,,0.65,VWS V14.01,2013-07-03 20:31:00,
2013-07-03 16:35:00,75.6,69.7,30.16,SSE,159,6.0,16.0,82,0.00,,,0.65,VWS V14.01,2013-07-03 20:35:00,
2013-07-03 16:36:00,75.6,69.7,30.16,SSE,155,9.0,11.0,82,0.00,,,0.65,VWS V14.01,2013-07-03 20:36:00,
2013-07-03 16:37:00,75.6,69.7,30.16,SSW,201,6.0,11.0,82,0.00,,,0.65,VWS V14.01,2013-07-03 20:37:00,
2013-07-03 16:39:00,75.6,69.7,30.16,SSE,157,7.0,11.0,82,0.00,,,0.65,VWS V14.01,2013-07-03 20:39:00,
2013-07-03 16:43:00,75.3,69.4,30.16,SSE,160,10.0,11.0,82,0.00,,,0.65,VWS V14.01,2013-07-03 20:43:00,
2013-07-03 16:45:00,75.1,69.2,30.16,South,177,6.0,13.0,82,0.00,,,0.65,VWS V14.01,2013-07-03 20:45:00,
2013-07-03 16:46:00,75.1,69.2,30.16,SSE,152,6.0,13.0,82,0.00,,,0.65,VWS V14.01,2013-07-03 20:46:00,
2013-07-03 16:50:00,74.9,69.7,30.16,SSW,202,8.0,13.0,84,0.00,,,0.65,VWS V14.01,2013-07-03 20:50:00,
2013-07-03 16:51:00,74.9,69.4,30.16,SSE,160,5.0,13.0,83,0.00,,,0.65,VWS V14.01,2013-07-03 20:51:00,
2013-07-03 16:52:00,74.9,69.4,30.16,South,188,8.0,13.0,83,0.00,,,0.65,VWS V14.01,2013-07-03 20:52:00,
2013-07-03 16:55:00,74.9,69.4,30.16,SSE,162,4.0,13.0,83,0.00,,,0.65,VWS V14.01,2013-07-03 20:55:00,
2013-07-03 16:58:00,75.4,70.6,30.16,South,173,12.0,13.0,85,0.00,,,0.65,VWS V14.01,2013-07-03 20:58:00,
2013-07-03 17:01:00,76.5,71.7,30.16,SSW,197,11.0,17.0,85,0.00,,,0.65,VWS V14.01,2013-07-03 21:01:00,
2013-07-03 17:02:00,76.7,71.9,30.16,South,185,7.0,17.0,85,0.00,,,0.65,VWS V14.01,2013-07-03 21:02:00,
2013-07-03 17:04:00,77.0,71.8,30.16,SSW,192,10.0,17.0,84,0.00,,,0.65,VWS V14.01,2013-07-03 21:04:00,
2013-07-03 17:06:00,77.0,71.4,30.16,South,180,6.0,17.0,83,0.00,,,0.65,VWS V14.01,2013-07-03 21:06:00,
2013-07-03 17:11:00,77.0,71.1,30.16,South,183,5.0,18.0,82,0.00,,,0.65,VWS V14.01,2013-07-03 21:11:00,
2013-07-03 17:12:00,77.0,70.7,30.16,SSE,153,10.0,18.0,81,0.00,,,0.65,VWS V14.01,2013-07-03 21:12:00,
2013-07-03 17:14:00,77.2,71.3,30.16,SSW,194,4.0,18.0,82,0.00,,,0.65,VWS V14.01,2013-07-03 21:14:00,
2013-07-03 17:17:00,77.4,71.5,30.16,SSW,192,6.0,18.0,82,0.00,,,0.65,VWS V14.01,2013-07-03 21:17:00,
2013-07-03 17:18:00,77.4,71.5,30.16,SSE,159,19.0,19.0,82,0.00,,,0.65,VWS V14.01,2013-07-03 21:18:00,
2013-07-03 17:19:00,77.4,71.1,30.16,SW,215,9.0,19.0,81,0.00,,,0.65,VWS V14.01,2013-07-03 21:19:00,
2013-07-03 17:24:00,77.2,70.6,30.16,SSW,197,9.0,19.0,80,0.00,,,0.65,VWS V14.01,2013-07-03 21:24:00,
2013-07-03 17:27:00,77.2,70.6,30.16,SSE,166,17.0,19.0,80,0.00,,,0.65,VWS V14.01,2013-07-03 21:27:00,
2013-07-03 17:28:00,77.2,70.6,30.16,South,182,3.0,19.0,80,0.00,,,0.65,VWS V14.01,2013-07-03 21:28:00,
2013-07-03 17:29:00,77.2,70.6,30.16,South,190,8.0,19.0,80,0.00,,,0.65,VWS V14.01,2013-07-03 21:29:00,
2013-07-03 17:34:00,77.4,70.8,30.16,SW,217,16.0,19.0,80,0.00,,,0.65,VWS V14.01,2013-07-03 21:34:00,
2013-07-03 17:35:00,77.2,70.6,30.15,South,190,6.0,19.0,80,0.00,,,0.65,VWS V14.01,2013-07-03 21:35:00,
2013-07-03 17:38:00,77.2,70.2,30.15,SSE,152,5.0,16.0,79,0.00,,,0.65,VWS V14.01,2013-07-03 21:38:00,
2013-07-03 17:40:00,77.0,70.4,30.15,SSE,163,5.0,16.0,80,0.00,,,0.65,VWS V14.01,2013-07-03 21:40:00,
2013-07-03 17:41:00,77.0,70.0,30.15,SSW,205,16.0,16.0,79,0.00,,,0.65,VWS V14.01,2013-07-03 21:41:00,
2013-07-03 17:46:00,77.2,70.6,30.15,SSW,195,2.0,16.0,80,0.00,,,0.65,VWS V14.01,2013-07-03 21:46:00,
2013-07-03 17:52:00,77.9,71.2,30.14,SSW,200,9.0,16.0,80,0.00,,,0.65,VWS V14.01,2013-07-03 21:52:00,
2013-07-03 17:53:00,77.9,70.9,30.14,South,176,7.0,16.0,79,0.00,,,0.65,VWS V14.01,2013-07-03 21:53:00,
2013-07-03 17:54:00,77.9,70.9,30.14,South,186,11.0,16.0,79,0.00,,,0.65,VWS V14.01,2013-07-03 21:54:00,
2013-07-03 17:58:00,77.4,70.0,30.14,South,178,7.0,16.0,78,0.00,,,0.65,VWS V14.01,2013-07-03 21:58:00,
2013-07-03 17:59:00,77.2,69.8,30.14,South,170,5.0,16.0,78,0.00,,,0.65,VWS V14.01,2013-07-03 21:59:00,
2013-07-03 18:00:00,77.0,69.6,30.14,SSW,207,10.0,16.0,78,0.00,,,0.65,VWS V14.01,2013-07-03 22:00:00,
2013-07-03 18:06:00,75.8,68.8,30.14,South,175,9.0,13.0,79,0.00,,,0.65,VWS V14.01,2013-07-03 22:06:00,
2013-07-03 18:07:00,75.6,69.0,30.14,SSW,196,5.0,15.0,80,0.00,,,0.65,VWS V14.01,2013-07-03 22:07:00,
2013-07-03 18:08:00,75.3,68.7,30.14,SSW,194,6.0,15.0,80,0.00,,,0.65,VWS V14.01,2013-07-03 22:08:00,
2013-07-03 18:11:00,74.9,69.0,30.14,SSE,167,6.0,15.0,82,0.00,,,0.65,VWS V14.01,2013-07-03 22:11:00,
2013-07-03 18:13:00,74.7,69.2,30.14,South,179,5.0,15.0,83,0.00,,,0.65,VWS V14.01,2013-07-03 22:13:00,
2013-07-03 18:20:00,74.4,68.6,30.14,SSW,208,4.0,15.0,82,0.00,,,0.65,VWS V14.01,2013-07-03 22:20:00,
2013-07-03 18:23:00,74.0,68.5,30.14,SSW,202,7.0,15.0,83,0.00,,,0.65,VWS V14.01,2013-07-03 22:23:00,
2013-07-03 18:28:00,74.0,69.2,30.14,SSE,159,7.0,19.0,85,0.00,,,0.65,VWS V14.01,2013-07-03 22:28:00,
2013-07-03 18:34:00,74.4,69.9,30.14,South,180,15.0,19.0,86,0.00,,,0.65,VWS V14.01,2013-07-03 22:34:00,
2013-07-03 18:35:00,74.4,69.6,30.14,SSW,210,12.0,19.0,85,0.00,,,0.65,VWS V14.01,2013-07-03 22:35:00,
2013-07-03 18:39:00,74.4,69.9,30.14,SSW,198,10.0,17.0,86,0.00,,,0.65,VWS V14.01,2013-07-03 22:39:00,
2013-07-03 18:40:00,74.4,69.9,30.14,SSW,202,7.0,17.0,86,0.00,,,0.65,VWS V14.01,2013-07-03 22:40:00,
2013-07-03 18:41:00,74.4,69.6,30.14,SSW,211,8.0,17.0,85,0.00,,,0.65,VWS V14.01,2013-07-03 22:41:00,
2013-07-03 18:44:00,74.6,70.1,30.14,SSW,207,5.0,17.0,86,0.00,,,0.65,VWS V14.01,2013-07-03 22:44:00,
2013-07-03 18:47:00,74.7,70.2,30.14,South,184,3.0,17.0,86,0.00,,,0.65,VWS V14.01,2013-07-03 22:47:00,
2013-07-03 18:49:00,74.9,70.1,30.15,SSW,196,9.0,17.0,85,0.00,,,0.65,VWS V14.01,2013-07-03 22:49:00,
2013-07-03 18:51:00,74.9,70.1,30.15,South,179,4.0,17.0,85,0.00,,,0.65,VWS V14.01,2013-07-03 22:51:00,
2013-07-03 18:54:00,74.7,69.9,30.15,South,188,4.0,17.0,85,0.00,,,0.65,VWS V14.01,2013-07-03 22:54:00,
2013-07-03 18:56:00,74.7,69.9,30.15,SSW,202,6.0,17.0,85,0.00,,,0.65,VWS V14.01,2013-07-03 22:56:00,
2013-07-03 19:01:00,74.6,69.8,30.15,South,190,3.0,17.0,85,0.00,,,0.65,VWS V14.01,2013-07-03 23:01:00,
2013-07-03 19:02:00,74.6,69.8,30.15,South,171,1.0,17.0,85,0.00,,,0.65,VWS V14.01,2013-07-03 23:02:00,
2013-07-03 19:04:00,74.6,69.8,30.16,South,186,7.0,17.0,85,0.00,,,0.65,VWS V14.01,2013-07-03 23:04:00,
2013-07-03 19:08:00,74.2,69.4,30.16,SSW,202,7.0,10.0,85,0.00,,,0.65,VWS V14.01,2013-07-03 23:08:00,
2013-07-03 19:10:00,73.9,69.1,30.16,SSW,193,3.0,10.0,85,0.00,,,0.65,VWS V14.01,2013-07-03 23:10:00,
2013-07-03 19:11:00,73.9,69.1,30.16,SSW,192,4.0,10.0,85,0.00,,,0.65,VWS V14.01,2013-07-03 23:11:00,
2013-07-03 19:14:00,73.3,68.5,30.16,South,181,4.0,12.0,85,0.00,,,0.65,VWS V14.01,2013-07-03 23:14:00,
2013-07-03 19:15:00,73.2,68.4,30.16,SSE,155,2.0,12.0,85,0.00,,,0.65,VWS V14.01,2013-07-03 23:15:00,
2013-07-03 19:19:00,72.7,67.9,30.16,SSW,196,8.0,12.0,85,0.00,,,0.65,VWS V14.01,2013-07-03 23:19:00,
2013-07-03 19:20:00,72.5,67.7,30.16,SSW,209,7.0,12.0,85,0.00,,,0.65,VWS V14.01,2013-07-03 23:20:00,
2013-07-03 19:21:00,72.3,67.5,30.16,SSW,205,7.0,12.0,85,0.00,,,0.65,VWS V14.01,2013-07-03 23:21:00,
2013-07-03 19:22:00,72.3,67.9,30.16,South,185,4.0,12.0,86,0.00,,,0.65,VWS V14.01,2013-07-03 23:22:00,
2013-07-03 19:24:00,72.1,67.7,30.16,SE,138,4.0,12.0,86,0.00,,,0.65,VWS V14.01,2013-07-03 23:24:00,
2013-07-03 19:27:00,71.8,67.7,30.16,SSE,157,0.0,12.0,87,0.00,,,0.65,VWS V14.01,2013-07-03 23:27:00,
2013-07-03 19:28:00,71.8,67.7,30.16,South,177,0.0,12.0,87,0.00,,,0.65,VWS V14.01,2013-07-03 23:28:00,
2013-07-03 19:30:00,71.6,67.5,30.16,South,187,0.0,12.0,87,0.00,,,0.65,VWS V14.01,2013-07-03 23:30:00,
2013-07-03 19:32:00,71.5,67.4,30.16,SSE,151,0.0,12.0,87,0.00,,,0.65,VWS V14.01,2013-07-03 23:32:00,
2013-07-03 19:36:00,71.1,67.0,30.16,SSW,206,5.0,9.0,87,0.00,,,0.65,VWS V14.01,2013-07-03 23:36:00,
2013-07-03 19:38:00,70.9,66.8,30.16,SSW,194,5.0,9.0,87,0.00,,,0.65,VWS V14.01,2013-07-03 23:38:00,
2013-07-03 19:43:00,70.9,67.2,30.16,SSW,192,0.0,9.0,88,0.00,,,0.65,VWS V14.01,2013-07-03 23:43:00,
2013-07-03 19:45:00,70.9,67.2,30.16,South,191,0.0,9.0,88,0.00,,,0.65,VWS V14.01,2013-07-03 23:45:00,
2013-07-03 19:50:00,71.3,68.2,30.16,South,188,1.0,9.0,90,0.00,,,0.65,VWS V14.01,2013-07-03 23:50:00,
2013-07-03 19:52:00,71.5,68.4,30.16,South,188,3.0,10.0,90,0.00,,,0.65,VWS V14.01,2013-07-03 23:52:00,
2013-07-03 19:54:00,71.6,68.5,30.16,SSW,206,7.0,11.0,90,0.00,,,0.65,VWS V14.01,2013-07-03 23:54:00,
2013-07-03 19:55:00,71.6,68.5,30.16,SSW,200,8.0,11.0,90,0.00,,,0.65,VWS V14.01,2013-07-03 23:55:00,
2013-07-03 19:58:00,71.5,68.1,30.16,SSW,199,9.0,11.0,89,0.00,,,0.65,VWS V14.01,2013-07-03 23:58:00,
2013-07-03 20:02:00,71.1,67.7,30.16,SSW,192,3.0,11.0,89,0.00,,,0.65,VWS V14.01,2013-07-04 00:02:00,
2013-07-03 20:03:00,70.9,67.5,30.16,SSW,192,0.0,11.0,89,0.00,,,0.65,VWS V14.01,2013-07-04 00:03:00,
2013-07-03 20:04:00,70.8,67.4,30.16,SSE,155,0.0,11.0,89,0.00,,,0.65,VWS V14.01,2013-07-04 00:04:00,
2013-07-03 20:05:00,70.8,67.4,30.16,South,182,4.0,11.0,89,0.00,,,0.65,VWS V14.01,2013-07-04 00:05:00,
2013-07-03 20:10:00,70.1,66.7,30.16,South,181,0.0,6.0,89,0.00,,,0.65,VWS V14.01,2013-07-04 00:10:00,
2013-07-03 20:11:00,69.9,66.5,30.16,South,180,0.0,6.0,89,0.00,,,0.65,VWS V14.01,2013-07-04 00:11:00,
2013-07-03 20:13:00,69.8,66.4,30.16,South,180,0.0,6.0,89,0.00,,,0.65,VWS V14.01,2013-07-04 00:13:00,
2013-07-03 20:17:00,69.4,66.0,30.16,South,180,0.0,6.0,89,0.00,,,0.65,VWS V14.01,2013-07-04 00:17:00,
2013-07-03 20:18:00,69.4,66.0,30.16,South,180,0.0,6.0,89,0.00,,,0.65,VWS V14.01,2013-07-04 00:18:00,
2013-07-03 20:25:00,69.1,66.1,30.17,South,180,0.0,6.0,90,0.00,,,0.65,VWS V14.01,2013-07-04 00:25:00,
2013-07-03 20:30:00,69.1,66.1,30.17,South,180,0.0,6.0,90,0.00,,,0.65,VWS V14.01,2013-07-04 00:30:00,
2013-07-03 20:31:00,69.1,66.1,30.17,South,180,0.0,6.0,90,0.00,,,0.65,VWS V14.01,2013-07-04 00:31:00,
2013-07-03 20:32:00,69.1,66.1,30.17,South,180,0.0,6.0,90,0.00,,,0.65,VWS V14.01,2013-07-04 00:32:00,
2013-07-03 20:35:00,69.1,66.1,30.17,South,180,0.0,0.0,90,0.00,,,0.65,VWS V14.01,2013-07-04 00:35:00,
2013-07-03 20:37:00,69.1,66.1,30.17,South,180,0.0,0.0,90,0.00,,,0.65,VWS V14.01,2013-07-04 00:37:00,
2013-07-03 20:39:00,69.1,66.4,30.17,South,180,0.0,0.0,91,0.00,,,0.65,VWS V14.01,2013-07-04 00:39:00,
2013-07-03 20:40:00,69.1,66.4,30.17,South,180,0.0,0.0,91,0.00,,,0.65,VWS V14.01,2013-07-04 00:40:00,
2013-07-03 20:42:00,69.3,66.6,30.17,South,180,0.0,0.0,91,0.00,,,0.65,VWS V14.01,2013-07-04 00:42:00,
2013-07-03 20:43:00,69.3,66.6,30.17,South,180,0.0,0.0,91,0.00,,,0.65,VWS V14.01,2013-07-04 00:43:00,
2013-07-03 20:47:00,69.4,66.7,30.17,South,175,0.0,5.0,91,0.00,,,0.65,VWS V14.01,2013-07-04 00:47:00,
2013-07-03 20:52:00,69.6,66.9,30.17,South,174,0.0,5.0,91,0.00,,,0.65,VWS V14.01,2013-07-04 00:52:00,
2013-07-03 20:56:00,69.8,67.4,30.17,South,174,0.0,5.0,92,0.00,,,0.65,VWS V14.01,2013-07-04 00:56:00,
2013-07-03 20:59:00,69.8,67.4,30.17,South,174,0.0,5.0,92,0.00,,,0.65,VWS V14.01,2013-07-04 00:59:00,
2013-07-03 21:06:00,69.6,66.9,30.19,South,174,0.0,0.0,91,0.00,,,0.65,VWS V14.01,2013-07-04 01:06:00,
2013-07-03 21:07:00,69.6,66.9,30.19,South,174,0.0,0.0,91,0.00,,,0.65,VWS V14.01,2013-07-04 01:07:00,
2013-07-03 21:08:00,69.4,66.7,30.19,South,173,0.0,0.0,91,0.00,,,0.65,VWS V14.01,2013-07-04 01:08:00,
2013-07-03 21:12:00,69.3,66.6,30.19,South,173,0.0,0.0,91,0.00,,,0.65,VWS V14.01,2013-07-04 01:12:00,
2013-07-03 21:13:00,69.3,66.6,30.19,South,174,0.0,0.0,91,0.00,,,0.65,VWS V14.01,2013-07-04 01:13:00,
2013-07-03 21:18:00,69.1,66.4,30.19,South,174,0.0,0.0,91,0.00,,,0.65,VWS V14.01,2013-07-04 01:18:00,
2013-07-03 21:19:00,69.1,66.4,30.19,South,173,0.0,0.0,91,0.00,,,0.65,VWS V14.01,2013-07-04 01:19:00,
2013-07-03 21:23:00,68.9,66.2,30.19,South,173,0.0,0.0,91,0.00,,,0.65,VWS V14.01,2013-07-04 01:23:00,
2013-07-03 21:24:00,68.9,66.2,30.19,South,173,0.0,0.0,91,0.00,,,0.65,VWS V14.01,2013-07-04 01:24:00,
2013-07-03 21:25:00,68.9,66.2,30.19,South,173,0.0,0.0,91,0.00,,,0.65,VWS V14.01,2013-07-04 01:25:00,
2013-07-03 21:27:00,68.9,66.2,30.19,South,173,0.0,1.0,91,0.00,,,0.65,VWS V14.01,2013-07-04 01:27:00,
2013-07-03 21:29:00,68.9,66.2,30.19,South,173,0.0,1.0,91,0.00,,,0.65,VWS V14.01,2013-07-04 01:29:00,
2013-07-03 21:30:00,68.9,66.2,30.19,South,173,0.0,1.0,91,0.00,,,0.65,VWS V14.01,2013-07-04 01:30:00,
2013-07-03 21:33:00,68.8,66.1,30.19,South,173,0.0,1.0,91,0.00,,,0.65,VWS V14.01,2013-07-04 01:33:00,
2013-07-03 21:34:00,68.8,66.1,30.19,South,173,0.0,1.0,91,0.00,,,0.65,VWS V14.01,2013-07-04 01:34:00,
2013-07-03 21:35:00,68.8,66.1,30.19,South,173,0.0,0.0,91,0.00,,,0.65,VWS V14.01,2013-07-04 01:35:00,
2013-07-03 21:38:00,68.8,66.1,30.19,South,173,0.0,0.0,91,0.00,,,0.65,VWS V14.01,2013-07-04 01:38:00,
2013-07-03 21:39:00,68.9,66.2,30.19,South,173,0.0,0.0,91,0.00,,,0.65,VWS V14.01,2013-07-04 01:39:00,
2013-07-03 21:41:00,68.9,66.2,30.19,South,173,0.0,0.0,91,0.00,,,0.65,VWS V14.01,2013-07-04 01:41:00,
2013-07-03 21:47:00,69.1,66.7,30.19,South,172,0.0,0.0,92,0.00,,,0.65,VWS V14.01,2013-07-04 01:47:00,
2013-07-03 21:48:00,69.1,66.7,30.19,South,173,0.0,0.0,92,0.00,,,0.65,VWS V14.01,2013-07-04 01:48:00,
2013-07-03 21:49:00,69.1,66.7,30.19,South,173,0.0,0.0,92,0.00,,,0.65,VWS V14.01,2013-07-04 01:49:00,
2013-07-03 21:53:00,69.1,66.4,30.19,South,173,0.0,0.0,91,0.00,,,0.65,VWS V14.01,2013-07-04 01:53:00,
2013-07-03 21:54:00,69.1,66.4,30.19,South,173,0.0,0.0,91,0.00,,,0.65,VWS V14.01,2013-07-04 01:54:00,
2013-07-03 21:57:00,68.9,66.2,30.19,South,173,0.0,0.0,91,0.00,,,0.65,VWS V14.01,2013-07-04 01:57:00,
2013-07-03 22:00:00,68.9,66.5,30.19,South,172,0.0,0.0,92,0.00,,,0.65,VWS V14.01,2013-07-04 02:00:00,
2013-07-03 22:03:00,68.9,66.2,30.19,South,172,0.0,0.0,91,0.00,,,0.65,VWS V14.01,2013-07-04 02:03:00,
2013-07-03 22:05:00,68.8,66.1,30.19,South,172,0.0,0.0,91,0.00,,,0.65,VWS V14.01,2013-07-04 02:05:00,
2013-07-03 22:08:00,68.6,65.9,30.19,South,172,0.0,0.0,91,0.00,,,0.65,VWS V14.01,2013-07-04 02:08:00,
2013-07-03 22:10:00,68.6,65.9,30.19,South,172,0.0,0.0,91,0.00,,,0.65,VWS V14.01,2013-07-04 02:10:00,
2013-07-03 22:11:00,68.4,65.7,30.19,South,172,0.0,0.0,91,0.00,,,0.65,VWS V14.01,2013-07-04 02:11:00,
2013-07-03 22:12:00,68.4,65.7,30.19,South,172,0.0,0.0,91,0.00,,,0.65,VWS V14.01,2013-07-04 02:12:00,
2013-07-03 22:14:00,68.4,65.7,30.19,South,170,2.0,6.0,91,0.00,,,0.65,VWS V14.01,2013-07-04 02:14:00,
2013-07-03 22:17:00,68.3,65.3,30.19,South,169,0.0,6.0,90,0.00,,,0.65,VWS V14.01,2013-07-04 02:17:00,
2013-07-03 22:21:00,67.9,65.2,30.19,South,169,0.0,6.0,91,0.00,,,0.65,VWS V14.01,2013-07-04 02:21:00,
2013-07-03 22:22:00,67.9,65.2,30.19,South,170,0.0,6.0,91,0.00,,,0.65,VWS V14.01,2013-07-04 02:22:00,
2013-07-03 22:26:00,67.9,65.2,30.19,South,169,0.0,6.0,91,0.00,,,0.65,VWS V14.01,2013-07-04 02:26:00,
2013-07-03 22:29:00,67.9,65.2,30.19,South,169,0.0,6.0,91,0.00,,,0.65,VWS V14.01,2013-07-04 02:29:00,
2013-07-03 22:30:00,67.9,65.2,30.19,SE,129,2.0,6.0,91,0.00,,,0.65,VWS V14.01,2013-07-04 02:30:00,
2013-07-03 22:32:00,67.9,65.2,30.19,SE,129,0.0,6.0,91,0.00,,,0.65,VWS V14.01,2013-07-04 02:32:00,
2013-07-03 22:35:00,67.9,65.2,30.20,SE,129,0.0,6.0,91,0.00,,,0.65,VWS V14.01,2013-07-04 02:35:00,
2013-07-03 22:38:00,67.8,65.1,30.20,SE,129,0.0,0.0,91,0.00,,,0.65,VWS V14.01,2013-07-04 02:38:00,
2013-07-03 22:40:00,67.8,65.1,30.20,SE,129,0.0,0.0,91,0.00,,,0.65,VWS V14.01,2013-07-04 02:40:00,
2013-07-03 22:43:00,67.8,65.1,30.20,SE,129,0.0,0.0,91,0.00,,,0.65,VWS V14.01,2013-07-04 02:43:00,
2013-07-03 22:46:00,67.8,65.1,30.20,SE,129,0.0,0.0,91,0.00,,,0.65,VWS V14.01,2013-07-04 02:46:00,
2013-07-03 22:48:00,67.8,65.4,30.20,SE,129,0.0,0.0,92,0.00,,,0.65,VWS V14.01,2013-07-04 02:48:00,
2013-07-03 22:49:00,67.8,65.4,30.19,SE,129,0.0,0.0,92,0.00,,,0.65,VWS V14.01,2013-07-04 02:49:00,
2013-07-03 22:50:00,67.8,65.4,30.19,SE,129,0.0,0.0,92,0.00,,,0.65,VWS V14.01,2013-07-04 02:50:00,
2013-07-03 22:53:00,67.8,65.4,30.19,SE,129,0.0,0.0,92,0.00,,,0.65,VWS V14.01,2013-07-04 02:53:00,
2013-07-03 22:54:00,67.8,65.4,30.19,SE,129,0.0,0.0,92,0.00,,,0.65,VWS V14.01,2013-07-04 02:54:00,
2013-07-03 22:58:00,67.8,65.4,30.19,SE,129,0.0,0.0,92,0.00,,,0.65,VWS V14.01,2013-07-04 02:58:00,
2013-07-03 22:59:00,67.8,65.4,30.19,South,178,6.0,7.0,92,0.00,,,0.65,VWS V14.01,2013-07-04 02:59:00,
2013-07-03 23:02:00,67.8,65.4,30.19,South,178,0.0,7.0,92,0.00,,,0.65,VWS V14.01,2013-07-04 03:02:00,
2013-07-03 23:04:00,67.9,65.5,30.19,South,177,0.0,7.0,92,0.00,,,0.65,VWS V14.01,2013-07-04 03:04:00,
2013-07-03 23:07:00,68.1,65.7,30.19,South,178,0.0,0.0,92,0.00,,,0.65,VWS V14.01,2013-07-04 03:07:00,
2013-07-03 23:09:00,68.3,65.9,30.19,South,178,0.0,0.0,92,0.00,,,0.65,VWS V14.01,2013-07-04 03:09:00,
2013-07-03 23:10:00,68.3,65.9,30.19,South,177,0.0,0.0,92,0.00,,,0.65,VWS V14.01,2013-07-04 03:10:00,
2013-07-03 23:13:00,68.3,65.9,30.19,South,178,0.0,6.0,92,0.00,,,0.65,VWS V14.01,2013-07-04 03:13:00,
2013-07-03 23:15:00,68.3,65.9,30.19,SW,236,6.0,11.0,92,0.00,,,0.65,VWS V14.01,2013-07-04 03:15:00,
2013-07-03 23:18:00,69.3,67.5,30.19,SW,228,5.0,11.0,94,0.00,,,0.65,VWS V14.01,2013-07-04 03:18:00,
2013-07-03 23:20:00,69.9,68.4,30.19,SW,225,5.0,11.0,95,0.00,,,0.65,VWS V14.01,2013-07-04 03:20:00,
2013-07-03 23:23:00,71.3,70.1,30.19,SW,233,5.0,11.0,96,0.00,,,0.65,VWS V14.01,2013-07-04 03:23:00,
2013-07-03 23:24:00,71.8,70.6,30.19,SW,222,7.0,11.0,96,0.00,,,0.65,VWS V14.01,2013-07-04 03:24:00,
2013-07-03 23:26:00,72.5,71.3,30.19,SW,227,1.0,11.0,96,0.00,,,0.65,VWS V14.01,2013-07-04 03:26:00,
2013-07-03 23:28:00,73.2,72.0,30.19,SW,228,2.0,11.0,96,0.00,,,0.65,VWS V14.01,2013-07-04 03:28:00,
2013-07-03 23:29:00,73.3,72.1,30.19,SW,228,4.0,11.0,96,0.00,,,0.65,VWS V14.01,2013-07-04 03:29:00,
2013-07-03 23:32:00,74.0,72.8,30.19,SW,235,4.0,11.0,96,0.00,,,0.65,VWS V14.01,2013-07-04 03:32:00,
2013-07-03 23:34:00,74.4,72.9,30.20,SW,229,3.0,11.0,95,0.00,,,0.65,VWS V14.01,2013-07-04 03:34:00,
2013-07-03 23:37:00,74.7,73.2,30.20,WSW,239,4.0,9.0,95,0.00,,,0.65,VWS V14.01,2013-07-04 03:37:00,
2013-07-03 23:40:00,74.9,73.4,30.20,SW,225,4.0,9.0,95,0.00,,,0.65,VWS V14.01,2013-07-04 03:40:00,
2013-07-03 23:43:00,74.9,73.4,30.20,WSW,246,7.0,9.0,95,0.00,,,0.65,VWS V14.01,2013-07-04 03:43:00,
2013-07-03 23:45:00,75.1,73.6,30.20,SW,233,1.0,10.0,95,0.00,,,0.65,VWS V14.01,2013-07-04 03:45:00,
2013-07-03 23:47:00,75.1,73.6,30.20,SW,223,6.0,10.0,95,0.00,,,0.65,VWS V14.01,2013-07-04 03:47:00,
2013-07-03 23:48:00,75.1,73.6,30.20,SW,224,0.0,10.0,95,0.00,,,0.65,VWS V14.01,2013-07-04 03:48:00,
2013-07-03 23:53:00,75.3,73.8,30.20,WSW,238,6.0,10.0,95,0.00,,,0.65,VWS V14.01,2013-07-04 03:53:00,
2013-07-03 23:54:00,75.3,73.8,30.20,SW,236,6.0,10.0,95,0.00,,,0.65,VWS V14.01,2013-07-04 03:54:00,
2013-07-03 23:57:00,75.3,73.8,30.20,SW,232,4.0,10.0,95,0.00,,,0.65,VWS V14.01,2013-07-04 03:57:00,